| time (UTC) | temp F | wind direction | speed knots | gust knots | rain 1hr in | rain 24hr in | rain mn in | humidity % | barometer mb |
| 20260502195149 | 47 | 294 | 5.2 | 12.2 | 0.00 | 0.00 | 0.00 | 48 | 1016.3 |
| 20260502195029 | 47 | 311 | 5.2 | 12.2 | 0.00 | 0.00 | 0.00 | 47 | 1016.3 |
| 20260502194909 | 47 | 270 | 2.6 | 12.2 | 0.00 | 0.00 | 0.00 | 47 | 1016.3 |
| 20260502194750 | 47 | 243 | 5.2 | 12.2 | 0.00 | 0.00 | 0.00 | 46 | 1016.4 |
| 20260502194606 | 47 | 259 | 7.0 | 12.2 | 0.00 | 0.00 | 0.00 | 46 | 1016.4 |
| 20260502194446 | 47 | 219 | 7.8 | 12.2 | 0.00 | 0.00 | 0.00 | 47 | 1016.4 |
| 20260502194324 | 47 | 264 | 8.7 | 12.2 | 0.00 | 0.00 | 0.00 | 47 | 1016.4 |
| 20260502194204 | 47 | 267 | 7.0 | 12.2 | 0.00 | 0.00 | 0.00 | 47 | 1016.4 |
| 20260502194042 | 46 | 300 | 6.1 | 11.3 | 0.00 | 0.00 | 0.00 | 47 | 1016.4 |
| 20260502193924 | 46 | 289 | 5.2 | 10.4 | 0.00 | 0.00 | 0.00 | 46 | 1016.5 |
| 20260502193802 | 46 | 277 | 6.1 | 9.6 | 0.00 | 0.00 | 0.00 | 46 | 1016.4 |
| 20260502193641 | 46 | 321 | 6.1 | 9.6 | 0.00 | 0.00 | 0.00 | 46 | 1016.4 |
| 20260502193518 | 46 | 312 | 6.1 | 9.6 | 0.00 | 0.00 | 0.00 | 46 | 1016.5 |
| 20260502193343 | 46 | 277 | 7.0 | 9.6 | 0.00 | 0.00 | 0.00 | 47 | 1016.5 |
| 20260502193221 | 46 | 315 | 5.2 | 11.3 | 0.00 | 0.00 | 0.00 | 48 | 1016.5 |
| 20260502193059 | 46 | 279 | 3.5 | 13.9 | 0.00 | 0.00 | 0.00 | 47 | 1016.5 |
| 20260502192936 | 46 | 265 | 3.5 | 13.9 | 0.00 | 0.00 | 0.00 | 46 | 1016.5 |
| 20260502192801 | 46 | 260 | 5.2 | 13.9 | 0.00 | 0.00 | 0.00 | 47 | 1016.5 |
| 20260502192640 | 46 | 322 | 6.1 | 13.9 | 0.00 | 0.00 | 0.00 | 47 | 1016.6 |
| 20260502192456 | 46 | 291 | 8.7 | 13.9 | 0.00 | 0.00 | 0.00 | 47 | 1016.6 |
| 20260502192336 | 46 | 296 | 8.7 | 13.9 | 0.00 | 0.00 | 0.00 | 48 | 1016.6 |
| 20260502192215 | 46 | 315 | 6.1 | 12.2 | 0.00 | 0.00 | 0.00 | 48 | 1016.6 |
| 20260502192054 | 46 | 272 | 4.3 | 10.4 | 0.00 | 0.00 | 0.00 | 48 | 1016.6 |
| 20260502191931 | 46 | 275 | 3.5 | 10.4 | 0.00 | 0.00 | 0.00 | 47 | 1016.6 |
| 20260502191811 | 46 | 251 | 3.5 | 10.4 | 0.00 | 0.00 | 0.00 | 47 | 1016.7 |
| 20260502191649 | 46 | 264 | 4.3 | 10.4 | 0.00 | 0.00 | 0.00 | 47 | 1016.6 |
| 20260502191531 | 46 | 260 | 4.3 | 10.4 | 0.00 | 0.00 | 0.00 | 47 | 1016.7 |
| 20260502191411 | 46 | 288 | 7.0 | 10.4 | 0.00 | 0.00 | 0.00 | 47 | 1016.7 |
| 20260502191248 | 46 | 270 | 5.2 | 7.8 | 0.00 | 0.00 | 0.00 | 48 | 1016.7 |
| 20260502191130 | 46 | 277 | 1.7 | 7.8 | 0.00 | 0.00 | 0.00 | 49 | 1016.7 |
| 20260502191013 | 46 | 299 | 1.7 | 7.8 | 0.00 | 0.00 | 0.00 | 49 | 1016.7 |
| 20260502190851 | 46 | 297 | 4.3 | 7.8 | 0.00 | 0.00 | 0.00 | 48 | 1016.7 |
| 20260502190708 | 46 | 319 | 3.5 | 7.8 | 0.00 | 0.00 | 0.00 | 49 | 1016.7 |
| 20260502190525 | 46 | 346 | 3.5 | 7.8 | 0.00 | 0.00 | 0.00 | 49 | 1016.7 |
| 20260502190351 | 45 | 292 | 4.3 | 7.8 | 0.00 | 0.00 | 0.00 | 49 | 1016.7 |
| 20260502190209 | 45 | 336 | 4.3 | 9.6 | 0.00 | 0.00 | 0.00 | 49 | 1016.7 |
| 20260502190051 | 45 | 300 | 5.2 | 9.6 | 0.00 | 0.00 | 0.00 | 48 | 1016.7 |
| 20260502185930 | 45 | 309 | 5.2 | 9.6 | 0.00 | 0.00 | 0.00 | 48 | 1016.8 |
| 20260502185813 | 45 | 306 | 5.2 | 11.3 | 0.00 | 0.00 | 0.00 | 48 | 1016.7 |
| 20260502185656 | 45 | 311 | 3.5 | 11.3 | 0.00 | 0.00 | 0.00 | 47 | 1016.7 |
| 20260502185536 | 45 | 355 | 3.5 | 11.3 | 0.00 | 0.00 | 0.00 | 47 | 1016.8 |
| 20260502185412 | 45 | 269 | 6.1 | 11.3 | 0.00 | 0.00 | 0.00 | 48 | 1016.8 |
| 20260502185249 | 45 | 292 | 7.0 | 11.3 | 0.00 | 0.00 | 0.00 | 46 | 1016.9 |
| 20260502185052 | 45 | 301 | 7.8 | 11.3 | 0.00 | 0.00 | 0.00 | 47 | 1016.8 |
| 20260502184932 | 45 | 294 | 4.3 | 10.4 | 0.00 | 0.00 | 0.00 | 48 | 1016.8 |
| 20260502184810 | 45 | 294 | 4.3 | 11.3 | 0.00 | 0.00 | 0.00 | 48 | 1016.9 |
| 20260502184648 | 45 | 284 | 4.3 | 12.2 | 0.00 | 0.00 | 0.00 | 48 | 1016.9 |
| 20260502184527 | 45 | 272 | 6.1 | 13.0 | 0.00 | 0.00 | 0.00 | 48 | 1016.9 |
| 20260502184407 | 45 | 304 | 6.1 | 13.0 | 0.00 | 0.00 | 0.00 | 48 | 1017.0 |
| 20260502184243 | 45 | 286 | 5.2 | 13.0 | 0.00 | 0.00 | 0.00 | 48 | 1016.9 |
| 20260502184121 | 45 | 244 | 6.1 | 13.0 | 0.00 | 0.00 | 0.00 | 48 | 1016.9 |
| 20260502184002 | 45 | 294 | 7.8 | 13.0 | 0.00 | 0.00 | 0.00 | 48 | 1017.0 |
| 20260502183842 | 45 | 261 | 7.8 | 13.0 | 0.00 | 0.00 | 0.00 | 49 | 1017.0 |
| 20260502183637 | 45 | 304 | 7.0 | 12.2 | 0.00 | 0.00 | 0.00 | 49 | 1016.9 |
| 20260502183515 | 45 | 301 | 5.2 | 11.3 | 0.00 | 0.00 | 0.00 | 49 | 1017.0 |
| 20260502183354 | 45 | 333 | 4.3 | 11.3 | 0.00 | 0.00 | 0.00 | 49 | 1017.0 |
| 20260502183235 | 45 | 291 | 4.3 | 11.3 | 0.00 | 0.00 | 0.00 | 49 | 1017.0 |
| 20260502183113 | 45 | 301 | 7.0 | 11.3 | 0.00 | 0.00 | 0.00 | 49 | 1017.0 |
| 20260502182828 | 45 | 248 | 7.0 | 10.4 | 0.00 | 0.00 | 0.00 | 50 | 1017.0 |
| 20260502182710 | 45 | 279 | 5.2 | 12.2 | 0.00 | 0.00 | 0.00 | 50 | 1017.0 |
| 20260502182550 | 45 | 275 | 3.5 | 12.2 | 0.00 | 0.00 | 0.00 | 50 | 1017.0 |
| 20260502182428 | 45 | 297 | 5.2 | 12.2 | 0.00 | 0.00 | 0.00 | 50 | 1016.9 |
| 20260502182244 | 45 | 299 | 4.3 | 12.2 | 0.00 | 0.00 | 0.00 | 49 | 1017.0 |
| 20260502182127 | 45 | 264 | 7.0 | 12.2 | 0.00 | 0.00 | 0.00 | 49 | 1017.0 |
| 20260502182004 | 45 | 282 | 6.1 | 12.2 | 0.00 | 0.00 | 0.00 | 50 | 1017.0 |
| 20260502181843 | 45 | 290 | 5.2 | 12.2 | 0.00 | 0.00 | 0.00 | 50 | 1017.0 |
| 20260502181721 | 45 | 290 | 7.0 | 12.2 | 0.00 | 0.00 | 0.00 | 49 | 1017.0 |
| 20260502181558 | 45 | 290 | 7.0 | 12.2 | 0.00 | 0.00 | 0.00 | 49 | 1017.1 |
| 20260502181440 | 45 | 289 | 6.1 | 12.2 | 0.00 | 0.00 | 0.00 | 50 | 1017.1 |
| 20260502181317 | 45 | 318 | 7.8 | 12.2 | 0.00 | 0.00 | 0.00 | 49 | 1017.0 |
| 20260502181155 | 45 | 308 | 7.8 | 12.2 | 0.00 | 0.00 | 0.00 | 48 | 1017.1 |
| 20260502181033 | 45 | 282 | 6.1 | 9.6 | 0.00 | 0.00 | 0.00 | 48 | 1017.0 |
| 20260502180914 | 45 | 296 | 3.5 | 11.3 | 0.00 | 0.00 | 0.00 | 48 | 1017.1 |
| 20260502180751 | 45 | 233 | 2.6 | 14.8 | 0.00 | 0.00 | 0.00 | 50 | 1017.0 |
| 20260502180629 | 45 | 292 | 2.6 | 14.8 | 0.00 | 0.00 | 0.00 | 50 | 1017.1 |
| 20260502180510 | 45 | 302 | 5.2 | 14.8 | 0.00 | 0.00 | 0.00 | 48 | 1017.1 |
| 20260502180353 | 45 | 320 | 5.2 | 14.8 | 0.00 | 0.00 | 0.00 | 48 | 1017.1 |
| 20260502180231 | 45 | 318 | 6.1 | 14.8 | 0.00 | 0.00 | 0.00 | 47 | 1017.1 |
| 20260502180108 | 45 | 279 | 9.6 | 14.8 | 0.00 | 0.00 | 0.00 | 47 | 1017.1 |
| 20260502170412 | 44 | 286 | 5.2 | 10.4 | 0.00 | 0.00 | 0.00 | 46 | 1017.5 |
| 20260502170236 | 44 | 291 | 7.8 | 10.4 | 0.00 | 0.00 | 0.00 | 46 | 1017.5 |
| 20260502170112 | 44 | 286 | 5.2 | 10.4 | 0.00 | 0.00 | 0.00 | 47 | 1017.5 |
| 20260502164246 | 44 | 289 | 8.7 | 11.3 | 0.00 | 0.00 | 0.00 | 47 | 1017.5 |
| 20260502164126 | 44 | 296 | 7.0 | 11.3 | 0.00 | 0.00 | 0.00 | 48 | 1017.6 |
| 20260502163951 | 43 | 257 | 3.5 | 10.4 | 0.00 | 0.00 | 0.00 | 47 | 1017.5 |
| 20260502163829 | 43 | 306 | 4.3 | 10.4 | 0.00 | 0.00 | 0.00 | 47 | 1017.6 |
| 20260502163647 | 43 | 291 | 3.5 | 10.4 | 0.00 | 0.00 | 0.00 | 48 | 1017.5 |
| 20260502163520 | 43 | 301 | 3.5 | 10.4 | 0.00 | 0.00 | 0.00 | 47 | 1017.6 |
| 20260502163357 | 43 | 360 | 6.1 | 10.4 | 0.00 | 0.00 | 0.00 | 48 | 1017.6 |
| 20260502163238 | 43 | 308 | 7.0 | 10.4 | 0.00 | 0.00 | 0.00 | 48 | 1017.6 |
| 20260502163115 | 43 | 293 | 5.2 | 11.3 | 0.00 | 0.00 | 0.00 | 49 | 1017.6 |
| 20260502162952 | 43 | 226 | 4.3 | 13.0 | 0.00 | 0.00 | 0.00 | 49 | 1017.6 |
| 20260502162831 | 43 | 307 | 5.2 | 13.0 | 0.00 | 0.00 | 0.00 | 49 | 1017.6 |
| 20260502162713 | 43 | 293 | 5.2 | 13.0 | 0.00 | 0.00 | 0.00 | 49 | 1017.6 |
| 20260502162551 | 43 | 296 | 5.2 | 13.0 | 0.00 | 0.00 | 0.00 | 48 | 1017.6 |
| 20260502162412 | 43 | 302 | 6.1 | 13.0 | 0.00 | 0.00 | 0.00 | 48 | 1017.6 |
| 20260502162250 | 43 | 294 | 8.7 | 13.0 | 0.00 | 0.00 | 0.00 | 47 | 1017.7 |
| 20260502162111 | 43 | 305 | 8.7 | 13.0 | 0.00 | 0.00 | 0.00 | 48 | 1017.6 |
| 20260502161947 | 44 | 310 | 6.1 | 13.0 | 0.00 | 0.00 | 0.00 | 49 | 1017.6 |
| 20260502161804 | 44 | 301 | 2.6 | 8.7 | 0.00 | 0.00 | 0.00 | 49 | 1017.6 |
| 20260502161643 | 44 | 281 | 4.3 | 8.7 | 0.00 | 0.00 | 0.00 | 48 | 1017.6 |
| 20260502161509 | 44 | 344 | 6.1 | 11.3 | 0.00 | 0.00 | 0.00 | 48 | 1017.6 |
| 20260502161347 | 44 | 306 | 4.3 | 11.3 | 0.00 | 0.00 | 0.00 | 48 | 1017.6 |
| 20260502161229 | 44 | 355 | 4.3 | 11.3 | 0.00 | 0.00 | 0.00 | 49 | 1017.7 |
| 20260502161107 | 44 | 342 | 5.2 | 11.3 | 0.00 | 0.00 | 0.00 | 48 | 1017.7 |
| 20260502160948 | 44 | 350 | 5.2 | 11.3 | 0.00 | 0.00 | 0.00 | 47 | 1017.7 |
| 20260502160830 | 44 | 355 | 6.1 | 11.3 | 0.00 | 0.00 | 0.00 | 47 | 1017.7 |
| 20260502160708 | 44 | 305 | 6.1 | 11.3 | 0.00 | 0.00 | 0.00 | 49 | 1017.7 |
| 20260502160547 | 44 | 292 | 3.5 | 7.0 | 0.00 | 0.00 | 0.00 | 50 | 1017.7 |
| 20260502160427 | 43 | 351 | 3.5 | 7.0 | 0.00 | 0.00 | 0.00 | 50 | 1017.7 |
| 20260502160308 | 43 | 360 | 3.5 | 7.0 | 0.00 | 0.00 | 0.00 | 50 | 1017.7 |
| 20260502160146 | 43 | 312 | 2.6 | 7.0 | 0.00 | 0.00 | 0.00 | 49 | 1017.7 |
| 20260502152332 | 43 | 317 | 6.1 | 11.3 | 0.00 | 0.00 | 0.00 | 52 | 1017.7 |
| 20260502152212 | 42 | 349 | 4.3 | 11.3 | 0.00 | 0.00 | 0.00 | 52 | 1017.7 |
| 20260502151914 | 42 | 344 | 6.1 | 11.3 | 0.00 | 0.00 | 0.00 | 51 | 1017.7 |
| 20260502151752 | 43 | 22 | 6.1 | 11.3 | 0.00 | 0.00 | 0.00 | 51 | 1017.7 |
| 20260502151629 | 43 | 335 | 5.2 | 9.6 | 0.00 | 0.00 | 0.00 | 52 | 1017.7 |
| 20260502151511 | 42 | 355 | 4.3 | 9.6 | 0.00 | 0.00 | 0.00 | 53 | 1017.6 |
| 20260502151328 | 42 | 66 | 4.3 | 9.6 | 0.00 | 0.00 | 0.00 | 52 | 1017.6 |
| 20260502151206 | 42 | 301 | 3.5 | 11.3 | 0.00 | 0.00 | 0.00 | 52 | 1017.6 |
| 20260502151024 | 42 | 341 | 3.5 | 11.3 | 0.00 | 0.00 | 0.00 | 53 | 1017.7 |
| 20260502150827 | 42 | 288 | 5.2 | 11.3 | 0.00 | 0.00 | 0.00 | 53 | 1017.7 |
| 20260502150703 | 41 | 334 | 6.1 | 11.3 | 0.00 | 0.00 | 0.00 | 52 | 1017.7 |
| 20260502150540 | 42 | 312 | 7.0 | 11.3 | 0.00 | 0.00 | 0.00 | 52 | 1017.7 |
| 20260502150359 | 42 | 303 | 6.1 | 11.3 | 0.00 | 0.00 | 0.00 | 52 | 1017.7 |
| 20260502150242 | 42 | 320 | 4.3 | 10.4 | 0.00 | 0.00 | 0.00 | 53 | 1017.7 |
| 20260502130736 | 39 | 297 | 3.5 | 9.6 | 0.00 | 0.00 | 0.00 | 67 | 1017.9 |
| 20260502130553 | 39 | 311 | 3.5 | 9.6 | 0.00 | 0.00 | 0.00 | 67 | 1017.9 |
| 20260502130435 | 39 | 321 | 6.1 | 9.6 | 0.00 | 0.00 | 0.00 | 68 | 1017.9 |
| 20260502130252 | 39 | 320 | 4.3 | 9.6 | 0.00 | 0.00 | 0.00 | 69 | 1017.9 |
| 20260502130133 | 39 | 334 | 3.5 | 7.0 | 0.00 | 0.00 | 0.00 | 70 | 1017.9 |
| 20260502123758 | 38 | 327 | 6.1 | 8.7 | 0.00 | 0.00 | 0.00 | 70 | 1017.7 |
| 20260502123636 | 38 | 331 | 5.2 | 8.7 | 0.00 | 0.00 | 0.00 | 71 | 1017.8 |
| 20260502123500 | 38 | 344 | 5.2 | 10.4 | 0.00 | 0.00 | 0.00 | 71 | 1017.7 |
| 20260502123320 | 38 | 28 | 3.5 | 10.4 | 0.00 | 0.00 | 0.00 | 71 | 1017.8 |
| 20260502123200 | 38 | 5 | 4.3 | 10.4 | 0.00 | 0.00 | 0.00 | 71 | 1017.7 |
| 20260502123037 | 37 | 329 | 5.2 | 10.4 | 0.00 | 0.00 | 0.00 | 71 | 1017.7 |
| 20260502122916 | 37 | 9 | 6.1 | 10.4 | 0.00 | 0.00 | 0.00 | 71 | 1017.7 |
| 20260502122737 | 37 | 340 | 6.1 | 10.4 | 0.00 | 0.00 | 0.00 | 71 | 1017.7 |
| 20260502122618 | 37 | 322 | 5.2 | 10.4 | 0.00 | 0.00 | 0.00 | 71 | 1017.7 |
| 20260502122439 | 37 | 346 | 5.2 | 10.4 | 0.00 | 0.00 | 0.00 | 72 | 1017.7 |
| 20260502122321 | 37 | 17 | 6.1 | 9.6 | 0.00 | 0.00 | 0.00 | 72 | 1017.7 |
| 20260502122204 | 37 | 338 | 6.1 | 9.6 | 0.00 | 0.00 | 0.00 | 72 | 1017.7 |
| 20260502122041 | 37 | 346 | 4.3 | 11.3 | 0.00 | 0.00 | 0.00 | 72 | 1017.7 |
| 20260502121859 | 37 | 360 | 4.3 | 11.3 | 0.00 | 0.00 | 0.00 | 72 | 1017.7 |
| 20260502121739 | 37 | 360 | 4.3 | 11.3 | 0.00 | 0.00 | 0.00 | 72 | 1017.7 |
| 20260502121600 | 37 | 349 | 6.1 | 11.3 | 0.00 | 0.00 | 0.00 | 72 | 1017.6 |
| 20260502121415 | 37 | 340 | 6.1 | 11.3 | 0.00 | 0.00 | 0.00 | 73 | 1017.7 |
| 20260502121236 | 37 | 349 | 5.2 | 8.7 | 0.00 | 0.00 | 0.00 | 73 | 1017.6 |
| 20260502121054 | 37 | 318 | 3.5 | 7.8 | 0.00 | 0.00 | 0.00 | 73 | 1017.7 |
| 20260502120931 | 37 | 342 | 3.5 | 8.7 | 0.00 | 0.00 | 0.00 | 73 | 1017.7 |
| 20260502120752 | 37 | 16 | 4.3 | 8.7 | 0.00 | 0.00 | 0.00 | 73 | 1017.6 |
| 20260502120628 | 37 | 360 | 4.3 | 8.7 | 0.00 | 0.00 | 0.00 | 73 | 1017.6 |
| 20260502120444 | 37 | 355 | 4.3 | 8.7 | 0.00 | 0.00 | 0.00 | 73 | 1017.6 |
| 20260502120325 | 37 | 334 | 4.3 | 8.7 | 0.00 | 0.00 | 0.00 | 73 | 1017.6 |
| 20260502120206 | 36 | 355 | 6.1 | 8.7 | 0.00 | 0.00 | 0.00 | 74 | 1017.6 |
| 20260502115902 | 36 | 321 | 2.6 | 7.8 | 0.00 | 0.00 | 0.00 | 74 | 1017.6 |
| 20260502115740 | 36 | 326 | 2.6 | 7.8 | 0.00 | 0.00 | 0.00 | 74 | 1017.6 |
| 20260502115602 | 36 | 333 | 4.3 | 7.8 | 0.00 | 0.00 | 0.00 | 74 | 1017.6 |
| 20260502115439 | 36 | 348 | 3.5 | 7.8 | 0.00 | 0.00 | 0.00 | 75 | 1017.6 |
| 20260502115320 | 36 | 306 | 4.3 | 7.8 | 0.00 | 0.00 | 0.00 | 75 | 1017.6 |
| 20260502115157 | 36 | 332 | 3.5 | 7.8 | 0.00 | 0.00 | 0.00 | 75 | 1017.6 |
| 20260502115034 | 36 | 355 | 4.3 | 7.8 | 0.00 | 0.00 | 0.00 | 75 | 1017.6 |
| 20260502114916 | 36 | 323 | 4.3 | 7.8 | 0.00 | 0.00 | 0.00 | 75 | 1017.6 |
| 20260502114751 | 36 | 20 | 3.5 | 7.8 | 0.00 | 0.00 | 0.00 | 75 | 1017.6 |
| 20260502114632 | 36 | 355 | 3.5 | 7.0 | 0.00 | 0.00 | 0.00 | 75 | 1017.6 |
| 20260502114509 | 36 | 5 | 3.5 | 7.0 | 0.00 | 0.00 | 0.00 | 75 | 1017.6 |
| 20260502114351 | 36 | 330 | 3.5 | 7.0 | 0.00 | 0.00 | 0.00 | 75 | 1017.6 |
| 20260502114230 | 35 | 355 | 5.2 | 7.0 | 0.00 | 0.00 | 0.00 | 76 | 1017.6 |
| 20260502114106 | 35 | 344 | 3.5 | 7.0 | 0.00 | 0.00 | 0.00 | 76 | 1017.5 |
| 20260502113944 | 35 | 310 | 3.5 | 7.0 | 0.00 | 0.00 | 0.00 | 76 | 1017.5 |
| 20260502113825 | 35 | 286 | 3.5 | 7.0 | 0.00 | 0.00 | 0.00 | 76 | 1017.5 |
| 20260502113702 | 35 | 337 | 1.7 | 7.0 | 0.00 | 0.00 | 0.00 | 76 | 1017.5 |
| 20260502113539 | 35 | 327 | 2.6 | 6.1 | 0.00 | 0.00 | 0.00 | 76 | 1017.5 |
| 20260502113418 | 35 | 5 | 2.6 | 6.1 | 0.00 | 0.00 | 0.00 | 76 | 1017.5 |
| 20260502113256 | 35 | 339 | 1.7 | 4.3 | 0.00 | 0.00 | 0.00 | 76 | 1017.4 |
| 20260502113116 | 35 | 324 | 1.7 | 4.3 | 0.00 | 0.00 | 0.00 | 76 | 1017.4 |
| 20260502112956 | 35 | 337 | 1.7 | 4.3 | 0.00 | 0.00 | 0.00 | 76 | 1017.4 |
| 20260502112833 | 35 | 351 | 1.7 | 4.3 | 0.00 | 0.00 | 0.00 | 76 | 1017.4 |
| 20260502112714 | 35 | 336 | 0.9 | 4.3 | 0.00 | 0.00 | 0.00 | 76 | 1017.4 |
| 20260502112533 | 35 | 338 | 1.7 | 4.3 | 0.00 | 0.00 | 0.00 | 76 | 1017.4 |
| 20260502112412 | 35 | 337 | 0.9 | 3.5 | 0.00 | 0.00 | 0.00 | 76 | 1017.4 |
| 20260502112254 | 35 | 328 | 1.7 | 3.5 | 0.00 | 0.00 | 0.00 | 76 | 1017.4 |
| 20260502112134 | 35 | 329 | 1.7 | 2.6 | 0.00 | 0.00 | 0.00 | 76 | 1017.4 |
| 20260502111955 | 35 | 337 | 0.9 | 2.6 | 0.00 | 0.00 | 0.00 | 76 | 1017.4 |
| 20260502111812 | 35 | 331 | 0.0 | 2.6 | 0.00 | 0.00 | 0.00 | 76 | 1017.3 |
| 20260502111628 | 35 | 331 | 0.9 | 2.6 | 0.00 | 0.00 | 0.00 | 76 | 1017.4 |
| 20260502111507 | 35 | 323 | 0.9 | 2.6 | 0.00 | 0.00 | 0.00 | 77 | 1017.4 |
| 20260502111344 | 35 | 338 | 0.0 | 0.9 | 0.00 | 0.00 | 0.00 | 77 | 1017.4 |
| 20260502111226 | 35 | 339 | 0.0 | 0.0 | 0.00 | 0.00 | 0.00 | 77 | 1017.4 |
| 20260502111104 | 35 | 339 | 0.0 | 0.0 | 0.00 | 0.00 | 0.00 | 77 | 1017.4 |
| 20260502110941 | 35 | 340 | 0.0 | 0.0 | 0.00 | 0.00 | 0.00 | 77 | 1017.4 |
| 20260502110800 | 35 | 340 | 0.0 | 0.0 | 0.00 | 0.00 | 0.00 | 77 | 1017.3 |
| 20260502110603 | 35 | 336 | 0.0 | 0.0 | 0.00 | 0.00 | 0.00 | 77 | 1017.3 |
| 20260502110441 | 35 | 336 | 0.0 | 0.0 | 0.00 | 0.00 | 0.00 | 77 | 1017.3 |
| 20260502110320 | 35 | 336 | 0.0 | 0.0 | 0.00 | 0.00 | 0.00 | 77 | 1017.3 |
| 20260502110158 | 35 | 336 | 0.0 | 0.0 | 0.00 | 0.00 | 0.00 | 77 | 1017.3 |
| 20260502110024 | 34 | 336 | 0.0 | 0.0 | 0.00 | 0.00 | 0.00 | 77 | 1017.3 |
| 20260502105901 | 34 | 336 | 0.0 | 0.0 | 0.00 | 0.00 | 0.00 | 76 | 1017.3 |
| 20260502105738 | 34 | 336 | 0.0 | 0.0 | 0.00 | 0.00 | 0.00 | 76 | 1017.3 |
| 20260502105616 | 34 | 336 | 0.0 | 0.0 | 0.00 | 0.00 | 0.00 | 76 | 1017.3 |
| 20260502105441 | 34 | 336 | 0.0 | 0.0 | 0.00 | 0.00 | 0.00 | 76 | 1017.2 |
| 20260502105321 | 34 | 336 | 0.0 | 0.0 | 0.00 | 0.00 | 0.00 | 76 | 1017.3 |
| 20260502105159 | 34 | 336 | 0.0 | 0.0 | 0.00 | 0.00 | 0.00 | 76 | 1017.2 |
| 20260502105036 | 34 | 336 | 0.0 | 0.0 | 0.00 | 0.00 | 0.00 | 76 | 1017.3 |
| 20260502104913 | 34 | 336 | 0.0 | 0.0 | 0.00 | 0.00 | 0.00 | 76 | 1017.2 |
| 20260502104731 | 34 | 336 | 0.0 | 0.0 | 0.00 | 0.00 | 0.00 | 76 | 1017.2 |
| 20260502104608 | 34 | 336 | 0.0 | 0.0 | 0.00 | 0.00 | 0.00 | 75 | 1017.2 |
| 20260502104446 | 34 | 336 | 0.0 | 0.0 | 0.00 | 0.00 | 0.00 | 75 | 1017.2 |
| 20260502104308 | 34 | 336 | 0.0 | 0.0 | 0.00 | 0.00 | 0.00 | 75 | 1017.2 |
| 20260502104146 | 34 | 336 | 0.0 | 0.0 | 0.00 | 0.00 | 0.00 | 75 | 1017.2 |
| 20260502104028 | 34 | 336 | 0.0 | 0.0 | 0.00 | 0.00 | 0.00 | 75 | 1017.2 |
| 20260502103907 | 34 | 336 | 0.0 | 0.0 | 0.00 | 0.00 | 0.00 | 75 | 1017.2 |
| 20260502103744 | 34 | 336 | 0.0 | 0.0 | 0.00 | 0.00 | 0.00 | 75 | 1017.2 |
| 20260502103625 | 34 | 336 | 0.0 | 0.0 | 0.00 | 0.00 | 0.00 | 75 | 1017.2 |
| 20260502103503 | 34 | 336 | 0.0 | 0.0 | 0.00 | 0.00 | 0.00 | 75 | 1017.2 |
| 20260502103339 | 35 | 336 | 0.0 | 0.0 | 0.00 | 0.00 | 0.00 | 75 | 1017.2 |
| 20260502103217 | 35 | 336 | 0.0 | 0.0 | 0.00 | 0.00 | 0.00 | 75 | 1017.2 |
| 20260502103041 | 35 | 336 | 0.0 | 0.0 | 0.00 | 0.00 | 0.00 | 74 | 1017.2 |
| 20260502102919 | 35 | 336 | 0.0 | 0.0 | 0.00 | 0.00 | 0.00 | 74 | 1017.2 |
| 20260502102757 | 35 | 336 | 0.0 | 0.0 | 0.00 | 0.00 | 0.00 | 74 | 1017.2 |
| 20260502102637 | 35 | 336 | 0.0 | 0.0 | 0.00 | 0.00 | 0.00 | 74 | 1017.2 |
| 20260502102518 | 35 | 336 | 0.0 | 0.0 | 0.00 | 0.00 | 0.00 | 74 | 1017.2 |
| 20260502102335 | 35 | 336 | 0.0 | 0.0 | 0.00 | 0.00 | 0.00 | 74 | 1017.2 |
| 20260502102212 | 35 | 336 | 0.0 | 0.0 | 0.00 | 0.00 | 0.00 | 74 | 1017.1 |
| 20260502102051 | 35 | 336 | 0.0 | 0.0 | 0.00 | 0.00 | 0.00 | 74 | 1017.2 |
| 20260502101933 | 35 | 336 | 0.0 | 0.0 | 0.00 | 0.00 | 0.00 | 74 | 1017.2 |
| 20260502101750 | 35 | 336 | 0.0 | 0.0 | 0.00 | 0.00 | 0.00 | 73 | 1017.1 |
| 20260502101630 | 35 | 336 | 0.0 | 0.0 | 0.00 | 0.00 | 0.00 | 73 | 1017.1 |
| 20260502101446 | 35 | 336 | 0.0 | 0.0 | 0.00 | 0.00 | 0.00 | 73 | 1017.1 |
| 20260502101325 | 35 | 336 | 0.0 | 0.0 | 0.00 | 0.00 | 0.00 | 73 | 1017.1 |
| 20260502101146 | 35 | 336 | 0.0 | 0.0 | 0.00 | 0.00 | 0.00 | 73 | 1017.1 |
| 20260502101025 | 35 | 336 | 0.0 | 0.0 | 0.00 | 0.00 | 0.00 | 73 | 1017.0 |
| 20260502100842 | 35 | 336 | 0.0 | 0.0 | 0.00 | 0.00 | 0.00 | 73 | 1017.0 |
| 20260502100658 | 35 | 336 | 0.0 | 0.0 | 0.00 | 0.00 | 0.00 | 73 | 1017.0 |
| 20260502100524 | 35 | 336 | 0.0 | 0.0 | 0.00 | 0.00 | 0.00 | 73 | 1017.0 |
| 20260502100402 | 35 | 336 | 0.0 | 0.0 | 0.00 | 0.00 | 0.00 | 73 | 1017.0 |
| 20260502100239 | 35 | 336 | 0.0 | 0.0 | 0.00 | 0.00 | 0.00 | 73 | 1017.0 |
| 20260502091449 | 36 | 360 | 0.0 | 2.6 | 0.00 | 0.00 | 0.00 | 71 | 1016.8 |
| 20260502091329 | 36 | 333 | 0.0 | 2.6 | 0.00 | 0.00 | 0.00 | 71 | 1016.7 |
| 20260502091206 | 36 | 336 | 0.0 | 4.3 | 0.00 | 0.00 | 0.00 | 71 | 1016.7 |
| 20260502091046 | 36 | 337 | 0.0 | 4.3 | 0.00 | 0.00 | 0.00 | 71 | 1016.7 |
| 20260502090928 | 36 | 339 | 0.0 | 4.3 | 0.00 | 0.00 | 0.00 | 71 | 1016.7 |
| 20260502090806 | 36 | 333 | 0.0 | 4.3 | 0.00 | 0.00 | 0.00 | 71 | 1016.7 |
| 20260502090644 | 36 | 336 | 0.0 | 4.3 | 0.00 | 0.00 | 0.00 | 71 | 1016.7 |
| 20260502090522 | 36 | 344 | 0.9 | 4.3 | 0.00 | 0.00 | 0.00 | 70 | 1016.7 |
| 20260502090404 | 36 | 345 | 1.7 | 4.3 | 0.00 | 0.00 | 0.00 | 70 | 1016.7 |
| 20260502090242 | 36 | 327 | 0.9 | 3.5 | 0.00 | 0.00 | 0.00 | 70 | 1016.7 |
| 20260502090121 | 36 | 321 | 0.9 | 3.5 | 0.00 | 0.00 | 0.00 | 70 | 1016.7 |
| 20260502071433 | 39 | 306 | 0.9 | 4.3 | 0.00 | 0.00 | 0.00 | 66 | 1016.3 |
| 20260502071309 | 39 | 319 | 1.7 | 4.3 | 0.00 | 0.00 | 0.00 | 66 | 1016.3 |
| 20260502071150 | 39 | 298 | 1.7 | 4.3 | 0.00 | 0.00 | 0.00 | 66 | 1016.3 |
| 20260502071028 | 39 | 296 | 0.9 | 4.3 | 0.00 | 0.00 | 0.00 | 66 | 1016.3 |
| 20260502070909 | 39 | 324 | 0.0 | 5.2 | 0.00 | 0.00 | 0.00 | 66 | 1016.3 |
| 20260502070748 | 39 | 329 | 0.0 | 5.2 | 0.00 | 0.00 | 0.00 | 66 | 1016.3 |
| 20260502070627 | 39 | 330 | 0.9 | 5.2 | 0.00 | 0.00 | 0.00 | 65 | 1016.3 |
| 20260502070445 | 39 | 323 | 0.9 | 5.2 | 0.00 | 0.00 | 0.00 | 65 | 1016.3 |
| 20260502070326 | 39 | 342 | 1.7 | 5.2 | 0.00 | 0.00 | 0.00 | 65 | 1016.3 |
| 20260502070207 | 39 | 344 | 2.6 | 5.2 | 0.00 | 0.00 | 0.00 | 65 | 1016.3 |
| 20260502070047 | 39 | 315 | 2.6 | 5.2 | 0.00 | 0.00 | 0.00 | 65 | 1016.3 |
| 20260502065925 | 39 | 325 | 1.7 | 5.2 | 0.00 | 0.00 | 0.00 | 65 | 1016.3 |
| 20260502065741 | 39 | 327 | 1.7 | 5.2 | 0.00 | 0.00 | 0.00 | 65 | 1016.3 |
| 20260502065623 | 39 | 338 | 0.9 | 6.1 | 0.00 | 0.00 | 0.00 | 66 | 1016.3 |
| 20260502065500 | 39 | 333 | 0.0 | 6.1 | 0.00 | 0.00 | 0.00 | 66 | 1016.3 |
| 20260502065316 | 39 | 327 | 0.9 | 6.1 | 0.00 | 0.00 | 0.00 | 65 | 1016.3 |
| 20260502065153 | 39 | 342 | 0.0 | 6.1 | 0.00 | 0.00 | 0.00 | 65 | 1016.3 |
| 20260502065035 | 39 | 320 | 1.7 | 6.1 | 0.00 | 0.00 | 0.00 | 65 | 1016.3 |
| 20260502064913 | 39 | 325 | 3.5 | 6.1 | 0.00 | 0.00 | 0.00 | 65 | 1016.4 |
| 20260502064751 | 39 | 312 | 1.7 | 5.2 | 0.00 | 0.00 | 0.00 | 65 | 1016.4 |
| 20260502064628 | 39 | 312 | 1.7 | 4.3 | 0.00 | 0.00 | 0.00 | 65 | 1016.4 |
| 20260502064506 | 39 | 304 | 0.9 | 4.3 | 0.00 | 0.00 | 0.00 | 65 | 1016.4 |
| 20260502064347 | 39 | 336 | 0.0 | 4.3 | 0.00 | 0.00 | 0.00 | 65 | 1016.4 |
| 20260502064203 | 39 | 327 | 0.9 | 4.3 | 0.00 | 0.00 | 0.00 | 65 | 1016.4 |
| 20260502064040 | 40 | 340 | 0.9 | 4.3 | 0.00 | 0.00 | 0.00 | 66 | 1016.5 |
| 20260502063918 | 40 | 333 | 0.0 | 2.6 | 0.00 | 0.00 | 0.00 | 65 | 1016.4 |
| 20260502063740 | 40 | 336 | 0.0 | 3.5 | 0.00 | 0.00 | 0.00 | 65 | 1016.4 |
| 20260502063622 | 40 | 336 | 0.0 | 3.5 | 0.00 | 0.00 | 0.00 | 65 | 1016.4 |
| 20260502063459 | 40 | 336 | 0.0 | 3.5 | 0.00 | 0.00 | 0.00 | 64 | 1016.5 |
| 20260502063337 | 40 | 336 | 0.9 | 3.5 | 0.00 | 0.00 | 0.00 | 64 | 1016.5 |
| 20260502063201 | 40 | 335 | 0.9 | 3.5 | 0.00 | 0.00 | 0.00 | 63 | 1016.4 |
| 20260502063038 | 40 | 355 | 1.7 | 3.5 | 0.00 | 0.00 | 0.00 | 63 | 1016.4 |
| 20260502062918 | 40 | 348 | 0.9 | 3.5 | 0.00 | 0.00 | 0.00 | 63 | 1016.5 |
| 20260502062755 | 40 | 324 | 0.9 | 3.5 | 0.00 | 0.00 | 0.00 | 63 | 1016.5 |
| 20260502062619 | 40 | 330 | 0.0 | 3.5 | 0.00 | 0.00 | 0.00 | 63 | 1016.5 |
| 20260502062457 | 40 | 337 | 0.0 | 3.5 | 0.00 | 0.00 | 0.00 | 63 | 1016.5 |
| 20260502062336 | 40 | 339 | 0.9 | 3.5 | 0.00 | 0.00 | 0.00 | 63 | 1016.5 |
| 20260502062214 | 40 | 345 | 1.7 | 3.5 | 0.00 | 0.00 | 0.00 | 62 | 1016.5 |
| 20260502062054 | 40 | 341 | 2.6 | 5.2 | 0.00 | 0.00 | 0.00 | 62 | 1016.5 |
| 20260502061933 | 40 | 350 | 1.7 | 5.2 | 0.00 | 0.00 | 0.00 | 62 | 1016.5 |
| 20260502061812 | 40 | 333 | 1.7 | 5.2 | 0.00 | 0.00 | 0.00 | 62 | 1016.5 |
| 20260502061650 | 40 | 360 | 1.7 | 5.2 | 0.00 | 0.00 | 0.00 | 62 | 1016.5 |
| 20260502061528 | 40 | 317 | 0.9 | 5.2 | 0.00 | 0.00 | 0.00 | 62 | 1016.5 |
| 20260502061409 | 40 | 344 | 1.7 | 5.2 | 0.00 | 0.00 | 0.00 | 62 | 1016.5 |
| 20260502061227 | 40 | 331 | 2.6 | 5.2 | 0.00 | 0.00 | 0.00 | 62 | 1016.5 |
| 20260502061107 | 40 | 348 | 2.6 | 5.2 | 0.00 | 0.00 | 0.00 | 62 | 1016.6 |
| 20260502060947 | 40 | 314 | 2.6 | 5.2 | 0.00 | 0.00 | 0.00 | 62 | 1016.5 |
| 20260502060829 | 40 | 329 | 2.6 | 5.2 | 0.00 | 0.00 | 0.00 | 62 | 1016.6 |
| 20260502060708 | 40 | 333 | 2.6 | 4.3 | 0.00 | 0.00 | 0.00 | 62 | 1016.6 |
| 20260502060548 | 40 | 335 | 1.7 | 7.0 | 0.00 | 0.00 | 0.00 | 62 | 1016.7 |
| 20260502060426 | 40 | 308 | 1.7 | 7.0 | 0.00 | 0.00 | 0.00 | 62 | 1016.6 |
| 20260502060309 | 40 | 329 | 0.9 | 7.0 | 0.00 | 0.00 | 0.00 | 62 | 1016.7 |
| 20260502060115 | 40 | 334 | 0.9 | 7.0 | 0.00 | 0.00 | 0.00 | 62 | 1016.6 |
| 20260502055959 | 40 | 302 | 0.9 | 7.0 | 0.00 | 0.00 | 0.00 | 62 | 1016.6 |
| 20260502055840 | 40 | 347 | 2.6 | 7.0 | 0.00 | 0.00 | 0.00 | 61 | 1016.7 |
| 20260502055722 | 40 | 323 | 3.5 | 7.0 | 0.00 | 0.00 | 0.00 | 61 | 1016.6 |
| 20260502055624 | 40 | 335 | 2.6 | 7.0 | 0.00 | 0.00 | 0.00 | 61 | 1016.6 |
| 20260502055530 | 40 | 343 | 1.7 | 7.0 | 0.00 | 0.00 | 0.00 | 61 | 1016.6 |
| 20260502055433 | 40 | 360 | 3.5 | 7.0 | 0.00 | 0.00 | 0.00 | 61 | 1016.6 |
| 20260502055335 | 40 | 331 | 3.5 | 7.0 | 0.00 | 0.00 | 0.00 | 61 | 1016.6 |
| 20260502055238 | 40 | 314 | 2.6 | 6.1 | 0.00 | 0.00 | 0.00 | 62 | 1016.6 |
| 20260502055200 | 40 | 320 | 1.7 | 6.1 | 0.00 | 0.00 | 0.00 | 62 | 1016.6 |
| 20260502055040 | 40 | 323 | 0.9 | 5.2 | 0.00 | 0.00 | 0.00 | 62 | 1016.6 |
| 20260502054942 | 40 | 5 | 1.7 | 5.2 | 0.00 | 0.00 | 0.00 | 62 | 1016.7 |
| 20260502054827 | 40 | 301 | 1.7 | 5.2 | 0.00 | 0.00 | 0.00 | 62 | 1016.7 |
| 20260502054728 | 40 | 350 | 2.6 | 5.2 | 0.00 | 0.00 | 0.00 | 61 | 1016.6 |
| 20260502054631 | 40 | 331 | 2.6 | 5.2 | 0.00 | 0.00 | 0.00 | 61 | 1016.6 |
| 20260502054531 | 40 | 322 | 1.7 | 5.2 | 0.00 | 0.00 | 0.00 | 62 | 1016.6 |
| 20260502054433 | 40 | 346 | 1.7 | 5.2 | 0.00 | 0.00 | 0.00 | 62 | 1016.6 |
| 20260502054334 | 40 | 333 | 1.7 | 5.2 | 0.00 | 0.00 | 0.00 | 62 | 1016.6 |
| 20260502054255 | 40 | 302 | 1.7 | 5.2 | 0.00 | 0.00 | 0.00 | 61 | 1016.6 |
| 20260502054156 | 40 | 331 | 2.6 | 5.2 | 0.00 | 0.00 | 0.00 | 61 | 1016.6 |
| 20260502054022 | 40 | 330 | 1.7 | 5.2 | 0.00 | 0.00 | 0.00 | 61 | 1016.7 |
| 20260502053924 | 40 | 9 | 2.6 | 5.2 | 0.00 | 0.00 | 0.00 | 61 | 1016.7 |
| 20260502053825 | 40 | 309 | 2.6 | 5.2 | 0.00 | 0.00 | 0.00 | 61 | 1016.7 |
| 20260502053727 | 40 | 344 | 2.6 | 5.2 | 0.00 | 0.00 | 0.00 | 61 | 1016.7 |
| 20260502053649 | 40 | 323 | 2.6 | 5.2 | 0.00 | 0.00 | 0.00 | 61 | 1016.7 |
| 20260502053529 | 40 | 331 | 1.7 | 5.2 | 0.00 | 0.00 | 0.00 | 62 | 1016.7 |
| 20260502053431 | 40 | 319 | 1.7 | 6.1 | 0.00 | 0.00 | 0.00 | 62 | 1016.7 |
| 20260502053357 | 40 | 329 | 1.7 | 6.1 | 0.00 | 0.00 | 0.00 | 62 | 1016.7 |
| 20260502053239 | 40 | 317 | 1.7 | 6.1 | 0.00 | 0.00 | 0.00 | 62 | 1016.7 |
| 20260502053201 | 40 | 336 | 1.7 | 6.1 | 0.00 | 0.00 | 0.00 | 62 | 1016.7 |
| 20260502053022 | 40 | 351 | 2.6 | 6.1 | 0.00 | 0.00 | 0.00 | 62 | 1016.7 |
| 20260502052924 | 40 | 317 | 2.6 | 6.1 | 0.00 | 0.00 | 0.00 | 61 | 1016.7 |
| 20260502052846 | 40 | 298 | 2.6 | 6.1 | 0.00 | 0.00 | 0.00 | 62 | 1016.7 |
| 20260502052726 | 40 | 311 | 2.6 | 6.1 | 0.00 | 0.00 | 0.00 | 62 | 1016.7 |
| 20260502052633 | 40 | 338 | 2.6 | 6.1 | 0.00 | 0.00 | 0.00 | 62 | 1016.7 |
| 20260502052555 | 40 | 303 | 2.6 | 6.1 | 0.00 | 0.00 | 0.00 | 62 | 1016.7 |
| 20260502052456 | 40 | 313 | 1.7 | 5.2 | 0.00 | 0.00 | 0.00 | 63 | 1016.7 |
| 20260502052336 | 40 | 287 | 1.7 | 5.2 | 0.00 | 0.00 | 0.00 | 63 | 1016.7 |
| 20260502052237 | 40 | 336 | 1.7 | 5.2 | 0.00 | 0.00 | 0.00 | 63 | 1016.7 |
| 20260502052138 | 40 | 319 | 0.9 | 5.2 | 0.00 | 0.00 | 0.00 | 62 | 1016.7 |
| 20260502052040 | 40 | 319 | 1.7 | 5.2 | 0.00 | 0.00 | 0.00 | 62 | 1016.7 |
| 20260502051926 | 40 | 336 | 1.7 | 5.2 | 0.00 | 0.00 | 0.00 | 62 | 1016.7 |
| 20260502051828 | 40 | 335 | 0.9 | 5.2 | 0.00 | 0.00 | 0.00 | 62 | 1016.7 |
| 20260502051731 | 40 | 296 | 0.9 | 5.2 | 0.00 | 0.00 | 0.00 | 62 | 1016.7 |
| 20260502051653 | 40 | 323 | 0.9 | 5.2 | 0.00 | 0.00 | 0.00 | 62 | 1016.7 |
| 20260502051554 | 40 | 319 | 1.7 | 5.2 | 0.00 | 0.00 | 0.00 | 62 | 1016.7 |
| 20260502051455 | 40 | 324 | 0.9 | 5.2 | 0.00 | 0.00 | 0.00 | 62 | 1016.7 |
| 20260502051336 | 40 | 332 | 0.9 | 5.2 | 0.00 | 0.00 | 0.00 | 62 | 1016.7 |
| 20260502051239 | 40 | 332 | 1.7 | 5.2 | 0.00 | 0.00 | 0.00 | 61 | 1016.7 |
| 20260502051125 | 40 | 335 | 2.6 | 5.2 | 0.00 | 0.00 | 0.00 | 61 | 1016.7 |
| 20260502051027 | 40 | 327 | 2.6 | 7.0 | 0.00 | 0.00 | 0.00 | 61 | 1016.7 |
| 20260502050928 | 40 | 304 | 1.7 | 7.0 | 0.00 | 0.00 | 0.00 | 61 | 1016.7 |
| 20260502050830 | 40 | 349 | 1.7 | 7.0 | 0.00 | 0.00 | 0.00 | 61 | 1016.6 |
| 20260502050732 | 40 | 331 | 3.5 | 7.0 | 0.00 | 0.00 | 0.00 | 61 | 1016.6 |
| 20260502050634 | 40 | 337 | 3.5 | 7.0 | 0.00 | 0.00 | 0.00 | 61 | 1016.6 |
| 20260502050539 | 40 | 355 | 2.6 | 7.0 | 0.00 | 0.00 | 0.00 | 62 | 1016.6 |
| 20260502050421 | 40 | 284 | 1.7 | 7.0 | 0.00 | 0.00 | 0.00 | 62 | 1016.7 |
| 20260502050324 | 40 | 335 | 3.5 | 7.0 | 0.00 | 0.00 | 0.00 | 62 | 1016.6 |
| 20260502050225 | 40 | 355 | 4.3 | 7.0 | 0.00 | 0.00 | 0.00 | 62 | 1016.6 |
| 20260502050128 | 40 | 344 | 2.6 | 7.0 | 0.00 | 0.00 | 0.00 | 62 | 1016.7 |
| 20260502050030 | 40 | 333 | 3.5 | 7.0 | 0.00 | 0.00 | 0.00 | 62 | 1016.6 |
| 20260502045931 | 40 | 346 | 3.5 | 7.0 | 0.00 | 0.00 | 0.00 | 62 | 1016.6 |
| 20260502045837 | 40 | 355 | 1.7 | 4.3 | 0.00 | 0.00 | 0.00 | 63 | 1016.6 |
| 20260502045739 | 40 | 324 | 0.9 | 3.5 | 0.00 | 0.00 | 0.00 | 63 | 1016.6 |
| 20260502045621 | 40 | 336 | 1.7 | 3.5 | 0.00 | 0.00 | 0.00 | 63 | 1016.6 |
| 20260502045523 | 40 | 327 | 2.6 | 6.1 | 0.00 | 0.00 | 0.00 | 63 | 1016.6 |
| 20260502045425 | 40 | 315 | 1.7 | 6.1 | 0.00 | 0.00 | 0.00 | 63 | 1016.6 |
| 20260502045327 | 40 | 338 | 0.9 | 8.7 | 0.00 | 0.00 | 0.00 | 63 | 1016.6 |
| 20260502045254 | 40 | 315 | 1.7 | 8.7 | 0.00 | 0.00 | 0.00 | 63 | 1016.5 |
| 20260502045134 | 41 | 323 | 1.7 | 8.7 | 0.00 | 0.00 | 0.00 | 63 | 1016.5 |
| 20260502045056 | 41 | 334 | 0.9 | 8.7 | 0.00 | 0.00 | 0.00 | 63 | 1016.6 |
| 20260502044937 | 41 | 355 | 1.7 | 8.7 | 0.00 | 0.00 | 0.00 | 62 | 1016.6 |
| 20260502044838 | 41 | 334 | 2.6 | 8.7 | 0.00 | 0.00 | 0.00 | 62 | 1016.5 |
| 20260502044740 | 41 | 11 | 3.5 | 8.7 | 0.00 | 0.00 | 0.00 | 62 | 1016.5 |
| 20260502044643 | 41 | 340 | 4.3 | 8.7 | 0.00 | 0.00 | 0.00 | 62 | 1016.5 |
| 20260502044543 | 41 | 336 | 4.3 | 8.7 | 0.00 | 0.00 | 0.00 | 62 | 1016.5 |
| 20260502044448 | 41 | 333 | 3.5 | 8.7 | 0.00 | 0.00 | 0.00 | 63 | 1016.5 |
| 20260502044328 | 41 | 350 | 1.7 | 4.3 | 0.00 | 0.00 | 0.00 | 62 | 1016.5 |
| 20260502044231 | 41 | 327 | 1.7 | 4.3 | 0.00 | 0.00 | 0.00 | 62 | 1016.4 |
| 20260502044133 | 41 | 321 | 0.9 | 4.3 | 0.00 | 0.00 | 0.00 | 62 | 1016.4 |
| 20260502044035 | 41 | 330 | 1.7 | 4.3 | 0.00 | 0.00 | 0.00 | 62 | 1016.4 |
| 20260502043937 | 41 | 320 | 2.6 | 4.3 | 0.00 | 0.00 | 0.00 | 62 | 1016.4 |
| 20260502043837 | 41 | 50 | 0.9 | 4.3 | 0.00 | 0.00 | 0.00 | 62 | 1016.4 |
| 20260502043722 | 41 | 302 | 0.9 | 4.3 | 0.00 | 0.00 | 0.00 | 62 | 1016.4 |
| 20260502043624 | 41 | 355 | 0.9 | 4.3 | 0.00 | 0.00 | 0.00 | 62 | 1016.4 |
| 20260502043525 | 41 | 346 | 0.9 | 4.3 | 0.00 | 0.00 | 0.00 | 62 | 1016.4 |
| 20260502043426 | 41 | 345 | 1.7 | 4.3 | 0.00 | 0.00 | 0.00 | 62 | 1016.4 |
| 20260502043348 | 41 | 12 | 2.6 | 4.3 | 0.00 | 0.00 | 0.00 | 62 | 1016.4 |
| 20260502043250 | 41 | 10 | 2.6 | 7.8 | 0.00 | 0.00 | 0.00 | 62 | 1016.4 |
| 20260502043131 | 41 | 17 | 2.6 | 7.8 | 0.00 | 0.00 | 0.00 | 62 | 1016.4 |
| 20260502043033 | 41 | 17 | 1.7 | 7.8 | 0.00 | 0.00 | 0.00 | 62 | 1016.4 |
| 20260502042939 | 41 | 33 | 2.6 | 7.8 | 0.00 | 0.00 | 0.00 | 62 | 1016.4 |
| 20260502042840 | 41 | 310 | 1.7 | 7.8 | 0.00 | 0.00 | 0.00 | 62 | 1016.4 |
| 20260502042721 | 41 | 26 | 1.7 | 7.8 | 0.00 | 0.00 | 0.00 | 62 | 1016.4 |
| 20260502042624 | 41 | 355 | 2.6 | 7.8 | 0.00 | 0.00 | 0.00 | 61 | 1016.3 |
| 20260502042526 | 41 | 325 | 3.5 | 7.8 | 0.00 | 0.00 | 0.00 | 61 | 1016.4 |
| 20260502042427 | 41 | 355 | 3.5 | 7.8 | 0.00 | 0.00 | 0.00 | 61 | 1016.4 |
| 20260502042332 | 41 | 360 | 2.6 | 7.8 | 0.00 | 0.00 | 0.00 | 61 | 1016.3 |
| 20260502042234 | 41 | 351 | 3.5 | 7.8 | 0.00 | 0.00 | 0.00 | 61 | 1016.3 |
| 20260502042136 | 41 | 13 | 2.6 | 7.8 | 0.00 | 0.00 | 0.00 | 62 | 1016.3 |
| 20260502042038 | 41 | 5 | 1.7 | 7.8 | 0.00 | 0.00 | 0.00 | 62 | 1016.3 |
| 20260502042001 | 41 | 355 | 1.7 | 7.8 | 0.00 | 0.00 | 0.00 | 62 | 1016.3 |
| 20260502041842 | 41 | 340 | 2.6 | 7.8 | 0.00 | 0.00 | 0.00 | 61 | 1016.3 |
| 20260502041743 | 41 | 323 | 3.5 | 7.8 | 0.00 | 0.00 | 0.00 | 61 | 1016.3 |
| 20260502041627 | 41 | 337 | 4.3 | 7.8 | 0.00 | 0.00 | 0.00 | 61 | 1016.3 |
| 20260502041529 | 41 | 17 | 4.3 | 7.8 | 0.00 | 0.00 | 0.00 | 61 | 1016.3 |
| 20260502041432 | 41 | 27 | 4.3 | 7.8 | 0.00 | 0.00 | 0.00 | 61 | 1016.3 |
| 20260502041333 | 41 | 336 | 5.2 | 7.8 | 0.00 | 0.00 | 0.00 | 62 | 1016.3 |
| 20260502041234 | 41 | 39 | 5.2 | 7.8 | 0.00 | 0.00 | 0.00 | 62 | 1016.3 |
| 20260502041136 | 41 | 347 | 4.3 | 7.8 | 0.00 | 0.00 | 0.00 | 62 | 1016.3 |
| 20260502041022 | 41 | 340 | 2.6 | 7.8 | 0.00 | 0.00 | 0.00 | 62 | 1016.3 |
| 20260502040922 | 41 | 328 | 1.7 | 7.8 | 0.00 | 0.00 | 0.00 | 62 | 1016.3 |
| 20260502040824 | 41 | 339 | 2.6 | 7.8 | 0.00 | 0.00 | 0.00 | 62 | 1016.2 |
| 20260502040726 | 41 | 342 | 3.5 | 7.8 | 0.00 | 0.00 | 0.00 | 62 | 1016.2 |
| 20260502040628 | 41 | 5 | 3.5 | 10.4 | 0.00 | 0.00 | 0.00 | 62 | 1016.2 |
| 20260502040550 | 41 | 355 | 3.5 | 10.4 | 0.00 | 0.00 | 0.00 | 62 | 1016.2 |
| 20260502040451 | 41 | 5 | 3.5 | 10.4 | 0.00 | 0.00 | 0.00 | 62 | 1016.2 |
| 20260502040332 | 41 | 355 | 3.5 | 10.4 | 0.00 | 0.00 | 0.00 | 62 | 1016.2 |
| 20260502040238 | 41 | 5 | 2.6 | 10.4 | 0.00 | 0.00 | 0.00 | 62 | 1016.2 |
| 20260502040141 | 41 | 5 | 1.7 | 10.4 | 0.00 | 0.00 | 0.00 | 62 | 1016.2 |
| 20260502040042 | 41 | 342 | 2.6 | 10.4 | 0.00 | 0.00 | 0.00 | 62 | 1016.2 |
| 20260502040004 | 41 | 337 | 3.5 | 10.4 | 0.00 | 0.00 | 0.00 | 62 | 1016.2 |
| 20260502035842 | 41 | 34 | 6.1 | 10.4 | 0.00 | 0.00 | 0.00 | 61 | 1016.2 |
| 20260502035722 | 41 | 333 | 5.2 | 8.7 | 0.00 | 0.00 | 0.00 | 62 | 1016.2 |
| 20260502035603 | 41 | 24 | 2.6 | 7.8 | 0.00 | 0.00 | 0.00 | 62 | 1016.2 |
| 20260502035441 | 41 | 334 | 3.5 | 7.8 | 0.00 | 0.00 | 0.00 | 62 | 1016.2 |
| 20260502035319 | 41 | 355 | 4.3 | 7.8 | 0.00 | 0.00 | 0.00 | 62 | 1016.2 |
| 20260502035138 | 41 | 350 | 5.2 | 7.8 | 0.00 | 0.00 | 0.00 | 62 | 1016.1 |
| 20260502035020 | 41 | 25 | 3.5 | 7.0 | 0.00 | 0.00 | 0.00 | 62 | 1016.1 |
| 20260502034857 | 41 | 315 | 3.5 | 7.0 | 0.00 | 0.00 | 0.00 | 62 | 1016.1 |
| 20260502034736 | 41 | 342 | 4.3 | 9.6 | 0.00 | 0.00 | 0.00 | 62 | 1016.1 |
| 20260502034616 | 41 | 348 | 3.5 | 9.6 | 0.00 | 0.00 | 0.00 | 62 | 1016.1 |
| 20260502034431 | 41 | 316 | 4.3 | 9.6 | 0.00 | 0.00 | 0.00 | 62 | 1016.0 |
| 20260502034314 | 41 | 319 | 3.5 | 9.6 | 0.00 | 0.00 | 0.00 | 62 | 1016.0 |
| 20260502034152 | 41 | 317 | 3.5 | 9.6 | 0.00 | 0.00 | 0.00 | 61 | 1016.0 |
| 20260502034030 | 41 | 350 | 5.2 | 10.4 | 0.00 | 0.00 | 0.00 | 61 | 1016.0 |
| 20260502033909 | 41 | 329 | 4.3 | 10.4 | 0.00 | 0.00 | 0.00 | 62 | 1016.0 |
| 20260502033751 | 41 | 336 | 1.7 | 10.4 | 0.00 | 0.00 | 0.00 | 62 | 1016.0 |
| 20260502033629 | 41 | 9 | 3.5 | 10.4 | 0.00 | 0.00 | 0.00 | 61 | 1016.0 |
| 20260502033507 | 41 | 22 | 5.2 | 10.4 | 0.00 | 0.00 | 0.00 | 61 | 1016.0 |
| 20260502033343 | 41 | 11 | 6.1 | 10.4 | 0.00 | 0.00 | 0.00 | 62 | 1016.0 |
| 20260502033225 | 41 | 338 | 6.1 | 10.4 | 0.00 | 0.00 | 0.00 | 62 | 1016.0 |
| 20260502033102 | 41 | 15 | 5.2 | 8.7 | 0.00 | 0.00 | 0.00 | 62 | 1016.1 |
| 20260502032941 | 41 | 346 | 3.5 | 6.1 | 0.00 | 0.00 | 0.00 | 63 | 1016.0 |
| 20260502032819 | 41 | 341 | 2.6 | 6.1 | 0.00 | 0.00 | 0.00 | 63 | 1016.0 |
| 20260502032657 | 41 | 355 | 0.9 | 7.0 | 0.00 | 0.00 | 0.00 | 63 | 1016.0 |
| 20260502032517 | 41 | 323 | 2.6 | 7.0 | 0.00 | 0.00 | 0.00 | 63 | 1016.0 |
| 20260502032355 | 41 | 42 | 1.7 | 7.0 | 0.00 | 0.00 | 0.00 | 63 | 1016.0 |
| 20260502032214 | 41 | 329 | 1.7 | 7.0 | 0.00 | 0.00 | 0.00 | 63 | 1015.9 |
| 20260502032052 | 41 | 355 | 2.6 | 7.0 | 0.00 | 0.00 | 0.00 | 63 | 1015.9 |
| 20260502031932 | 41 | 38 | 1.7 | 7.0 | 0.00 | 0.00 | 0.00 | 63 | 1015.9 |
| 20260502031752 | 41 | 350 | 1.7 | 7.0 | 0.00 | 0.00 | 0.00 | 63 | 1015.9 |
| 20260502031630 | 41 | 329 | 3.5 | 7.0 | 0.00 | 0.00 | 0.00 | 63 | 1015.9 |
| 20260502031510 | 41 | 334 | 2.6 | 7.0 | 0.00 | 0.00 | 0.00 | 63 | 1015.9 |
| 20260502031353 | 42 | 331 | 3.5 | 7.0 | 0.00 | 0.00 | 0.00 | 63 | 1015.9 |
| 20260502031230 | 42 | 332 | 3.5 | 7.0 | 0.00 | 0.00 | 0.00 | 63 | 1015.9 |
| 20260502031109 | 42 | 355 | 4.3 | 7.0 | 0.00 | 0.00 | 0.00 | 63 | 1015.9 |
| 20260502030947 | 42 | 343 | 4.3 | 7.0 | 0.00 | 0.00 | 0.00 | 63 | 1015.9 |
| 20260502030803 | 42 | 340 | 3.5 | 7.8 | 0.00 | 0.00 | 0.00 | 63 | 1015.9 |
| 20260502030644 | 42 | 340 | 2.6 | 7.8 | 0.00 | 0.00 | 0.00 | 63 | 1015.9 |
| 20260502030521 | 42 | 338 | 2.6 | 7.8 | 0.00 | 0.00 | 0.00 | 63 | 1015.9 |
| 20260502030359 | 42 | 327 | 2.6 | 7.8 | 0.00 | 0.00 | 0.00 | 63 | 1015.9 |
| 20260502030237 | 42 | 340 | 3.5 | 7.8 | 0.00 | 0.00 | 0.00 | 63 | 1015.9 |
| 20260502030119 | 42 | 322 | 5.2 | 7.8 | 0.00 | 0.00 | 0.00 | 63 | 1015.9 |
| 20260502025938 | 42 | 360 | 4.3 | 7.8 | 0.00 | 0.00 | 0.00 | 63 | 1015.8 |
| 20260502025818 | 42 | 346 | 3.5 | 7.8 | 0.00 | 0.00 | 0.00 | 64 | 1015.9 |
| 20260502025656 | 42 | 322 | 3.5 | 7.8 | 0.00 | 0.00 | 0.00 | 64 | 1015.9 |
| 20260502025537 | 42 | 5 | 4.3 | 7.8 | 0.00 | 0.00 | 0.00 | 64 | 1015.9 |
| 20260502025414 | 42 | 350 | 3.5 | 7.8 | 0.00 | 0.00 | 0.00 | 64 | 1015.9 |
| 20260502025251 | 42 | 27 | 2.6 | 7.8 | 0.00 | 0.00 | 0.00 | 64 | 1015.9 |
| 20260502025109 | 42 | 40 | 5.2 | 7.8 | 0.00 | 0.00 | 0.00 | 64 | 1015.9 |
| 20260502024928 | 42 | 338 | 4.3 | 7.8 | 0.00 | 0.00 | 0.00 | 64 | 1015.9 |
| 20260502024811 | 42 | 22 | 2.6 | 7.0 | 0.00 | 0.00 | 0.00 | 65 | 1015.9 |
| 20260502024628 | 42 | 355 | 3.5 | 7.0 | 0.00 | 0.00 | 0.00 | 65 | 1015.9 |
| 20260502024443 | 42 | 28 | 3.5 | 7.0 | 0.00 | 0.00 | 0.00 | 65 | 1015.9 |
| 20260502024326 | 42 | 339 | 3.5 | 9.6 | 0.00 | 0.00 | 0.00 | 66 | 1015.9 |
| 20260502024207 | 42 | 338 | 1.7 | 9.6 | 0.00 | 0.00 | 0.00 | 66 | 1015.9 |
| 20260502024046 | 42 | 329 | 3.5 | 9.6 | 0.00 | 0.00 | 0.00 | 66 | 1015.8 |
| 20260502023903 | 42 | 350 | 2.6 | 9.6 | 0.00 | 0.00 | 0.00 | 67 | 1015.9 |
| 20260502023742 | 42 | 341 | 3.5 | 9.6 | 0.00 | 0.00 | 0.00 | 66 | 1015.8 |
| 20260502023623 | 42 | 307 | 4.3 | 9.6 | 0.00 | 0.00 | 0.00 | 66 | 1015.8 |
| 20260502023501 | 42 | 350 | 3.5 | 7.8 | 0.00 | 0.00 | 0.00 | 67 | 1015.8 |
| 20260502023317 | 42 | 275 | 1.7 | 7.8 | 0.00 | 0.00 | 0.00 | 68 | 1015.8 |
| 20260502023158 | 42 | 321 | 1.7 | 7.8 | 0.00 | 0.00 | 0.00 | 68 | 1015.8 |
| 20260502023035 | 42 | 331 | 2.6 | 7.8 | 0.00 | 0.00 | 0.00 | 67 | 1015.8 |
| 20260502022915 | 42 | 295 | 4.3 | 7.8 | 0.00 | 0.00 | 0.00 | 67 | 1015.8 |
| 20260502022732 | 42 | 295 | 5.2 | 7.8 | 0.00 | 0.00 | 0.00 | 68 | 1015.8 |
| 20260502022610 | 42 | 307 | 3.5 | 7.0 | 0.00 | 0.00 | 0.00 | 68 | 1015.8 |
| 20260502022447 | 42 | 276 | 3.5 | 7.0 | 0.00 | 0.00 | 0.00 | 68 | 1015.8 |
| 20260502022327 | 42 | 300 | 3.5 | 4.3 | 0.00 | 0.00 | 0.00 | 68 | 1015.8 |
| 20260502022144 | 42 | 294 | 2.6 | 4.3 | 0.00 | 0.00 | 0.00 | 68 | 1015.8 |
| 20260502022021 | 42 | 301 | 0.9 | 3.5 | 0.00 | 0.00 | 0.00 | 68 | 1015.8 |
| 20260502021840 | 42 | 283 | 0.0 | 3.5 | 0.00 | 0.00 | 0.00 | 68 | 1015.8 |
| 20260502021722 | 42 | 284 | 0.9 | 3.5 | 0.00 | 0.00 | 0.00 | 68 | 1015.8 |
| 20260502021600 | 42 | 284 | 1.7 | 3.5 | 0.00 | 0.00 | 0.00 | 68 | 1015.8 |
| 20260502021438 | 42 | 265 | 0.0 | 3.5 | 0.00 | 0.00 | 0.00 | 67 | 1015.7 |
| 20260502021316 | 42 | 257 | 0.0 | 3.5 | 0.00 | 0.00 | 0.00 | 67 | 1015.7 |
| 20260502021157 | 42 | 256 | 0.9 | 3.5 | 0.00 | 0.00 | 0.00 | 67 | 1015.7 |
| 20260502021039 | 42 | 256 | 0.9 | 3.5 | 0.00 | 0.00 | 0.00 | 67 | 1015.7 |
| 20260502020920 | 42 | 268 | 0.9 | 3.5 | 0.00 | 0.00 | 0.00 | 67 | 1015.6 |
| 20260502020739 | 42 | 270 | 0.9 | 3.5 | 0.00 | 0.00 | 0.00 | 67 | 1015.7 |
| 20260502020617 | 42 | 284 | 0.9 | 2.6 | 0.00 | 0.00 | 0.00 | 67 | 1015.6 |
| 20260502020438 | 42 | 287 | 0.0 | 2.6 | 0.00 | 0.00 | 0.00 | 67 | 1015.6 |
| 20260502020255 | 42 | 288 | 0.9 | 2.6 | 0.00 | 0.00 | 0.00 | 67 | 1015.7 |
| 20260502020131 | 42 | 288 | 0.9 | 2.6 | 0.00 | 0.00 | 0.00 | 67 | 1015.6 |
| 20260502020012 | 42 | 290 | 0.0 | 2.6 | 0.00 | 0.00 | 0.00 | 67 | 1015.6 |
| 20260502015836 | 42 | 291 | 0.9 | 2.6 | 0.00 | 0.00 | 0.00 | 67 | 1015.6 |
| 20260502015715 | 42 | 290 | 0.9 | 2.6 | 0.00 | 0.00 | 0.00 | 67 | 1015.6 |
| 20260502015553 | 42 | 290 | 0.9 | 2.6 | 0.00 | 0.00 | 0.00 | 67 | 1015.6 |
| 20260502015431 | 42 | 286 | 0.9 | 2.6 | 0.00 | 0.00 | 0.00 | 67 | 1015.5 |
| 20260502015313 | 42 | 286 | 0.9 | 2.6 | 0.00 | 0.00 | 0.00 | 67 | 1015.5 |
| 20260502015150 | 42 | 276 | 0.0 | 3.5 | 0.00 | 0.00 | 0.00 | 67 | 1015.5 |
| 20260502015028 | 42 | 275 | 0.0 | 3.5 | 0.00 | 0.00 | 0.00 | 67 | 1015.5 |
| 20260502014906 | 42 | 263 | 0.0 | 3.5 | 0.00 | 0.00 | 0.00 | 67 | 1015.5 |
| 20260502014745 | 42 | 263 | 0.9 | 3.5 | 0.00 | 0.00 | 0.00 | 67 | 1015.5 |
| 20260502014627 | 42 | 263 | 0.9 | 3.5 | 0.00 | 0.00 | 0.00 | 67 | 1015.5 |
| 20260502014504 | 42 | 292 | 0.9 | 3.5 | 0.00 | 0.00 | 0.00 | 67 | 1015.5 |
| 20260502014344 | 42 | 280 | 0.0 | 3.5 | 0.00 | 0.00 | 0.00 | 67 | 1015.5 |
| 20260502014226 | 42 | 286 | 0.0 | 3.5 | 0.00 | 0.00 | 0.00 | 67 | 1015.5 |
| 20260502014107 | 42 | 296 | 0.9 | 3.5 | 0.00 | 0.00 | 0.00 | 67 | 1015.4 |
| 20260502013945 | 42 | 279 | 0.9 | 3.5 | 0.00 | 0.00 | 0.00 | 66 | 1015.4 |
| 20260502013821 | 42 | 277 | 1.7 | 3.5 | 0.00 | 0.00 | 0.00 | 66 | 1015.4 |
| 20260502013638 | 43 | 282 | 1.7 | 5.2 | 0.00 | 0.00 | 0.00 | 66 | 1015.4 |
| 20260502013519 | 43 | 302 | 1.7 | 5.2 | 0.00 | 0.00 | 0.00 | 66 | 1015.4 |
| 20260502013358 | 43 | 273 | 1.7 | 5.2 | 0.00 | 0.00 | 0.00 | 66 | 1015.4 |
| 20260502013238 | 43 | 276 | 0.9 | 6.1 | 0.00 | 0.00 | 0.00 | 66 | 1015.4 |
| 20260502013117 | 43 | 302 | 1.7 | 6.1 | 0.00 | 0.00 | 0.00 | 66 | 1015.4 |
| 20260502012955 | 43 | 296 | 2.6 | 6.1 | 0.00 | 0.00 | 0.00 | 66 | 1015.4 |
| 20260502012835 | 43 | 292 | 2.6 | 6.1 | 0.00 | 0.00 | 0.00 | 65 | 1015.4 |
| 20260502012714 | 43 | 281 | 3.5 | 7.0 | 0.00 | 0.00 | 0.00 | 65 | 1015.4 |
| 20260502012551 | 43 | 294 | 3.5 | 7.0 | 0.00 | 0.00 | 0.00 | 65 | 1015.4 |
| 20260502012431 | 43 | 302 | 2.6 | 7.0 | 0.00 | 0.00 | 0.00 | 65 | 1015.4 |
| 20260502012253 | 43 | 321 | 2.6 | 7.0 | 0.00 | 0.00 | 0.00 | 65 | 1015.3 |
| 20260502012131 | 43 | 302 | 4.3 | 7.0 | 0.00 | 0.00 | 0.00 | 65 | 1015.3 |
| 20260502012007 | 43 | 306 | 4.3 | 7.0 | 0.00 | 0.00 | 0.00 | 65 | 1015.4 |
| 20260502011846 | 43 | 294 | 4.3 | 7.0 | 0.00 | 0.00 | 0.00 | 65 | 1015.3 |
| 20260502011707 | 43 | 284 | 3.5 | 7.0 | 0.00 | 0.00 | 0.00 | 66 | 1015.3 |
| 20260502011545 | 43 | 290 | 2.6 | 7.0 | 0.00 | 0.00 | 0.00 | 66 | 1015.3 |
| 20260502011423 | 43 | 306 | 2.6 | 7.0 | 0.00 | 0.00 | 0.00 | 66 | 1015.3 |
| 20260502011304 | 43 | 265 | 3.5 | 7.0 | 0.00 | 0.00 | 0.00 | 66 | 1015.3 |
| 20260502011141 | 43 | 300 | 4.3 | 7.0 | 0.00 | 0.00 | 0.00 | 66 | 1015.3 |
| 20260502011022 | 43 | 286 | 4.3 | 7.0 | 0.00 | 0.00 | 0.00 | 65 | 1015.3 |
| 20260502010820 | 43 | 309 | 4.3 | 7.0 | 0.00 | 0.00 | 0.00 | 65 | 1015.3 |
| 20260502010657 | 43 | 315 | 5.2 | 7.0 | 0.00 | 0.00 | 0.00 | 65 | 1015.3 |
| 20260502010535 | 43 | 300 | 2.6 | 7.0 | 0.00 | 0.00 | 0.00 | 66 | 1015.2 |
| 20260502010359 | 43 | 325 | 3.5 | 7.8 | 0.00 | 0.00 | 0.00 | 66 | 1015.2 |
| 20260502010238 | 43 | 311 | 4.3 | 7.8 | 0.00 | 0.00 | 0.00 | 66 | 1015.2 |
| 20260502010118 | 43 | 309 | 2.6 | 7.8 | 0.00 | 0.00 | 0.00 | 66 | 1015.2 |
| 20260502005959 | 43 | 290 | 3.5 | 7.8 | 0.00 | 0.00 | 0.00 | 65 | 1015.2 |
| 20260502005820 | 43 | 288 | 5.2 | 7.8 | 0.00 | 0.00 | 0.00 | 65 | 1015.2 |
| 20260502005659 | 43 | 308 | 5.2 | 7.8 | 0.00 | 0.00 | 0.00 | 65 | 1015.2 |
| 20260502005536 | 43 | 281 | 4.3 | 7.8 | 0.00 | 0.00 | 0.00 | 65 | 1015.2 |
| 20260502005357 | 43 | 315 | 4.3 | 7.8 | 0.00 | 0.00 | 0.00 | 65 | 1015.2 |
| 20260502005221 | 43 | 317 | 4.3 | 11.3 | 0.00 | 0.00 | 0.00 | 65 | 1015.2 |
| 20260502005037 | 43 | 304 | 3.5 | 11.3 | 0.00 | 0.00 | 0.00 | 64 | 1015.1 |
| 20260502004914 | 43 | 318 | 4.3 | 11.3 | 0.00 | 0.00 | 0.00 | 64 | 1015.1 |
| 20260502004711 | 43 | 305 | 5.2 | 11.3 | 0.00 | 0.00 | 0.00 | 64 | 1015.1 |
| 20260502004553 | 43 | 321 | 7.0 | 11.3 | 0.00 | 0.00 | 0.00 | 64 | 1015.1 |
| 20260502004432 | 43 | 301 | 7.0 | 11.3 | 0.00 | 0.00 | 0.00 | 64 | 1015.1 |
| 20260502004309 | 43 | 321 | 4.3 | 11.3 | 0.00 | 0.00 | 0.00 | 64 | 1015.1 |
| 20260502004127 | 43 | 293 | 4.3 | 11.3 | 0.00 | 0.00 | 0.00 | 63 | 1015.1 |
| 20260502003952 | 43 | 271 | 7.0 | 11.3 | 0.00 | 0.00 | 0.00 | 63 | 1015.1 |
| 20260502003829 | 43 | 282 | 7.0 | 10.4 | 0.00 | 0.00 | 0.00 | 63 | 1015.1 |
| 20260502003709 | 43 | 310 | 6.1 | 10.4 | 0.00 | 0.00 | 0.00 | 63 | 1015.1 |
| 20260502003546 | 43 | 310 | 6.1 | 11.3 | 0.00 | 0.00 | 0.00 | 63 | 1015.1 |
| 20260502003423 | 43 | 305 | 6.1 | 11.3 | 0.00 | 0.00 | 0.00 | 63 | 1015.1 |
| 20260502003305 | 43 | 303 | 5.2 | 11.3 | 0.00 | 0.00 | 0.00 | 63 | 1015.1 |
| 20260502003142 | 43 | 307 | 7.0 | 11.3 | 0.00 | 0.00 | 0.00 | 63 | 1015.0 |
| 20260502003020 | 44 | 306 | 5.2 | 11.3 | 0.00 | 0.00 | 0.00 | 63 | 1015.0 |
| 20260502002857 | 44 | 309 | 7.0 | 11.3 | 0.00 | 0.00 | 0.00 | 63 | 1015.0 |
| 20260502002722 | 44 | 303 | 5.2 | 9.6 | 0.00 | 0.00 | 0.00 | 64 | 1015.0 |
| 20260502002603 | 44 | 275 | 4.3 | 8.7 | 0.00 | 0.00 | 0.00 | 64 | 1015.0 |
| 20260502002440 | 44 | 316 | 5.2 | 8.7 | 0.00 | 0.00 | 0.00 | 64 | 1015.0 |
| 20260502002322 | 44 | 300 | 5.2 | 8.7 | 0.00 | 0.00 | 0.00 | 64 | 1015.0 |
| 20260502002203 | 44 | 301 | 4.3 | 8.7 | 0.00 | 0.00 | 0.00 | 65 | 1015.0 |
| 20260502002042 | 44 | 286 | 3.5 | 7.0 | 0.00 | 0.00 | 0.00 | 65 | 1015.0 |
| 20260502001919 | 44 | 327 | 2.6 | 6.1 | 0.00 | 0.00 | 0.00 | 65 | 1015.0 |
| 20260502001758 | 44 | 360 | 1.7 | 5.2 | 0.00 | 0.00 | 0.00 | 66 | 1015.0 |
| 20260502001641 | 44 | 319 | 1.7 | 6.1 | 0.00 | 0.00 | 0.00 | 65 | 1015.0 |
| 20260502001521 | 44 | 302 | 1.7 | 6.1 | 0.00 | 0.00 | 0.00 | 65 | 1015.0 |
| 20260502001359 | 44 | 327 | 1.7 | 6.1 | 0.00 | 0.00 | 0.00 | 64 | 1014.9 |
| 20260502001215 | 44 | 334 | 2.6 | 6.1 | 0.00 | 0.00 | 0.00 | 64 | 1014.9 |
| 20260502001031 | 44 | 304 | 1.7 | 6.1 | 0.00 | 0.00 | 0.00 | 65 | 1014.9 |
| 20260502000914 | 44 | 333 | 2.6 | 6.1 | 0.00 | 0.00 | 0.00 | 64 | 1014.9 |
| 20260502000753 | 44 | 319 | 2.6 | 7.0 | 0.00 | 0.00 | 0.00 | 64 | 1015.0 |
| 20260502000629 | 44 | 309 | 3.5 | 7.0 | 0.00 | 0.00 | 0.00 | 65 | 1014.9 |
| 20260502000508 | 44 | 296 | 1.7 | 7.0 | 0.00 | 0.00 | 0.00 | 65 | 1014.9 |
| 20260502000349 | 44 | 309 | 1.7 | 7.0 | 0.00 | 0.00 | 0.00 | 64 | 1014.9 |
| 20260502000208 | 44 | 344 | 3.5 | 7.0 | 0.00 | 0.00 | 0.00 | 64 | 1014.9 |
| 20260502000047 | 44 | 329 | 3.5 | 7.0 | 0.00 | 0.00 | 0.00 | 64 | 1014.9 |
| 20260501235924 | 44 | 312 | 2.6 | 7.0 | 0.00 | 0.00 | 0.00 | 64 | 1014.8 |
| 20260501235806 | 44 | 15 | 1.7 | 7.8 | 0.00 | 0.00 | 0.00 | 64 | 1014.8 |
| 20260501235643 | 44 | 304 | 3.5 | 7.8 | 0.00 | 0.00 | 0.00 | 64 | 1014.8 |
| 20260501235501 | 44 | 344 | 3.5 | 7.8 | 0.00 | 0.00 | 0.00 | 64 | 1014.8 |
| 20260501235339 | 44 | 303 | 4.3 | 7.8 | 0.00 | 0.00 | 0.00 | 64 | 1014.9 |
| 20260501235203 | 44 | 312 | 5.2 | 7.8 | 0.00 | 0.00 | 0.00 | 64 | 1014.9 |
| 20260501235040 | 44 | 288 | 3.5 | 7.8 | 0.00 | 0.00 | 0.00 | 64 | 1014.8 |
| 20260501234922 | 44 | 290 | 2.6 | 7.0 | 0.00 | 0.00 | 0.00 | 64 | 1014.8 |
| 20260501234759 | 44 | 303 | 1.7 | 9.6 | 0.00 | 0.00 | 0.00 | 64 | 1014.8 |
| 20260501234637 | 44 | 294 | 3.5 | 9.6 | 0.00 | 0.00 | 0.00 | 64 | 1014.8 |
| 20260501234517 | 44 | 294 | 4.3 | 9.6 | 0.00 | 0.00 | 0.00 | 64 | 1014.8 |
| 20260501234355 | 44 | 338 | 4.3 | 9.6 | 0.00 | 0.00 | 0.00 | 64 | 1014.7 |
| 20260501234233 | 44 | 322 | 4.3 | 9.6 | 0.00 | 0.00 | 0.00 | 64 | 1014.7 |
| 20260501234111 | 44 | 310 | 5.2 | 9.6 | 0.00 | 0.00 | 0.00 | 64 | 1014.7 |
| 20260501233953 | 44 | 298 | 5.2 | 9.6 | 0.00 | 0.00 | 0.00 | 65 | 1014.7 |
| 20260501233830 | 44 | 304 | 4.3 | 8.7 | 0.00 | 0.00 | 0.00 | 65 | 1014.7 |
| 20260501233708 | 44 | 279 | 5.2 | 8.7 | 0.00 | 0.00 | 0.00 | 65 | 1014.7 |
| 20260501233546 | 44 | 292 | 3.5 | 7.0 | 0.00 | 0.00 | 0.00 | 66 | 1014.7 |
| 20260501233427 | 44 | 311 | 2.6 | 7.8 | 0.00 | 0.00 | 0.00 | 66 | 1014.7 |
| 20260501233244 | 44 | 302 | 1.7 | 7.8 | 0.00 | 0.00 | 0.00 | 66 | 1014.7 |
| 20260501233121 | 44 | 5 | 2.6 | 7.8 | 0.00 | 0.00 | 0.00 | 66 | 1014.7 |
| 20260501232958 | 44 | 306 | 2.6 | 7.8 | 0.00 | 0.00 | 0.00 | 66 | 1014.7 |
| 20260501232838 | 44 | 306 | 3.5 | 7.8 | 0.00 | 0.00 | 0.00 | 65 | 1014.7 |
| 20260501232719 | 44 | 331 | 4.3 | 7.8 | 0.00 | 0.00 | 0.00 | 65 | 1014.7 |
| 20260501232555 | 44 | 331 | 4.3 | 7.0 | 0.00 | 0.00 | 0.00 | 65 | 1014.7 |
| 20260501232433 | 44 | 283 | 4.3 | 7.0 | 0.00 | 0.00 | 0.00 | 65 | 1014.8 |
| 20260501232310 | 44 | 285 | 3.5 | 8.7 | 0.00 | 0.00 | 0.00 | 65 | 1014.7 |
| 20260501232152 | 44 | 292 | 1.7 | 8.7 | 0.00 | 0.00 | 0.00 | 65 | 1014.8 |
| 20260501232031 | 44 | 318 | 3.5 | 8.7 | 0.00 | 0.00 | 0.00 | 65 | 1014.8 |
| 20260501231907 | 44 | 289 | 4.3 | 8.7 | 0.00 | 0.00 | 0.00 | 65 | 1014.7 |
| 20260501231745 | 44 | 330 | 2.6 | 8.7 | 0.00 | 0.00 | 0.00 | 65 | 1014.7 |
| 20260501231626 | 44 | 334 | 4.3 | 8.7 | 0.00 | 0.00 | 0.00 | 65 | 1014.7 |
| 20260501231504 | 44 | 344 | 5.2 | 8.7 | 0.00 | 0.00 | 0.00 | 65 | 1014.7 |
| 20260501231342 | 44 | 302 | 3.5 | 7.0 | 0.00 | 0.00 | 0.00 | 65 | 1014.7 |
| 20260501231219 | 44 | 291 | 3.5 | 7.0 | 0.00 | 0.00 | 0.00 | 65 | 1014.7 |
| 20260501231045 | 44 | 332 | 3.5 | 8.7 | 0.00 | 0.00 | 0.00 | 65 | 1014.7 |
| 20260501230923 | 44 | 302 | 2.6 | 8.7 | 0.00 | 0.00 | 0.00 | 65 | 1014.7 |
| 20260501230759 | 44 | 304 | 3.5 | 8.7 | 0.00 | 0.00 | 0.00 | 65 | 1014.7 |
| 20260501230637 | 44 | 296 | 2.6 | 8.7 | 0.00 | 0.00 | 0.00 | 65 | 1014.7 |
| 20260501230514 | 44 | 335 | 3.5 | 8.7 | 0.00 | 0.00 | 0.00 | 64 | 1014.7 |
| 20260501230356 | 44 | 327 | 5.2 | 8.7 | 0.00 | 0.00 | 0.00 | 64 | 1014.7 |
| 20260501230233 | 44 | 311 | 3.5 | 8.7 | 0.00 | 0.00 | 0.00 | 65 | 1014.7 |
| 20260501230109 | 44 | 334 | 3.5 | 6.1 | 0.00 | 0.00 | 0.00 | 65 | 1014.7 |
| 20260501225925 | 44 | 310 | 3.5 | 7.0 | 0.00 | 0.00 | 0.00 | 65 | 1014.7 |
| 20260501225807 | 44 | 313 | 4.3 | 7.0 | 0.00 | 0.00 | 0.00 | 65 | 1014.7 |
| 20260501225644 | 44 | 302 | 3.5 | 7.0 | 0.00 | 0.00 | 0.00 | 65 | 1014.7 |
| 20260501225503 | 44 | 328 | 3.5 | 7.0 | 0.00 | 0.00 | 0.00 | 65 | 1014.7 |
| 20260501225342 | 44 | 327 | 2.6 | 7.0 | 0.00 | 0.00 | 0.00 | 65 | 1014.7 |
| 20260501225224 | 44 | 346 | 3.5 | 7.0 | 0.00 | 0.00 | 0.00 | 65 | 1014.7 |
| 20260501225101 | 44 | 327 | 2.6 | 7.8 | 0.00 | 0.00 | 0.00 | 65 | 1014.7 |
| 20260501224940 | 44 | 337 | 3.5 | 7.8 | 0.00 | 0.00 | 0.00 | 66 | 1014.7 |
| 20260501224819 | 44 | 325 | 2.6 | 7.8 | 0.00 | 0.00 | 0.00 | 65 | 1014.7 |
| 20260501224659 | 44 | 328 | 2.6 | 7.8 | 0.00 | 0.00 | 0.00 | 65 | 1014.7 |
| 20260501224538 | 44 | 355 | 5.2 | 7.8 | 0.00 | 0.00 | 0.00 | 65 | 1014.7 |
| 20260501224416 | 44 | 297 | 6.1 | 7.8 | 0.00 | 0.00 | 0.00 | 65 | 1014.7 |
| 20260501224255 | 44 | 298 | 5.2 | 7.8 | 0.00 | 0.00 | 0.00 | 65 | 1014.7 |
| 20260501224132 | 44 | 296 | 4.3 | 10.4 | 0.00 | 0.00 | 0.00 | 65 | 1014.7 |
| 20260501223933 | 44 | 306 | 5.2 | 13.0 | 0.00 | 0.00 | 0.00 | 65 | 1014.7 |
| 20260501223811 | 44 | 321 | 4.3 | 13.0 | 0.00 | 0.00 | 0.00 | 65 | 1014.7 |
| 20260501223649 | 44 | 309 | 4.3 | 13.0 | 0.00 | 0.00 | 0.00 | 64 | 1014.7 |
| 20260501223526 | 45 | 310 | 5.2 | 13.0 | 0.00 | 0.00 | 0.00 | 65 | 1014.7 |
| 20260501223408 | 45 | 300 | 7.0 | 13.0 | 0.00 | 0.00 | 0.00 | 64 | 1014.7 |
| 20260501223244 | 45 | 41 | 6.1 | 13.0 | 0.00 | 0.00 | 0.00 | 65 | 1014.7 |
| 20260501223121 | 45 | 360 | 3.5 | 9.6 | 0.00 | 0.00 | 0.00 | 65 | 1014.7 |
| 20260501223002 | 45 | 341 | 3.5 | 9.6 | 0.00 | 0.00 | 0.00 | 65 | 1014.7 |
| 20260501222821 | 45 | 348 | 5.2 | 9.6 | 0.00 | 0.00 | 0.00 | 64 | 1014.7 |
| 20260501222702 | 45 | 347 | 5.2 | 9.6 | 0.00 | 0.00 | 0.00 | 64 | 1014.7 |
| 20260501222540 | 45 | 330 | 3.5 | 9.6 | 0.00 | 0.00 | 0.00 | 65 | 1014.7 |
| 20260501222419 | 45 | 341 | 5.2 | 9.6 | 0.00 | 0.00 | 0.00 | 64 | 1014.7 |
| 20260501222236 | 45 | 325 | 6.1 | 9.6 | 0.00 | 0.00 | 0.00 | 64 | 1014.6 |
| 20260501222118 | 45 | 355 | 3.5 | 8.7 | 0.00 | 0.00 | 0.00 | 64 | 1014.6 |
| 20260501221956 | 45 | 336 | 4.3 | 8.7 | 0.00 | 0.00 | 0.00 | 64 | 1014.6 |
| 20260501221833 | 45 | 333 | 5.2 | 8.7 | 0.00 | 0.00 | 0.00 | 63 | 1014.6 |
| 20260501221712 | 45 | 298 | 5.2 | 8.7 | 0.00 | 0.00 | 0.00 | 64 | 1014.6 |
| 20260501221534 | 45 | 340 | 4.3 | 8.7 | 0.00 | 0.00 | 0.00 | 63 | 1014.5 |
| 20260501221412 | 45 | 329 | 5.2 | 8.7 | 0.00 | 0.00 | 0.00 | 63 | 1014.5 |
| 20260501221230 | 45 | 355 | 4.3 | 8.7 | 0.00 | 0.00 | 0.00 | 64 | 1014.5 |
| 20260501221108 | 45 | 295 | 3.5 | 10.4 | 0.00 | 0.00 | 0.00 | 63 | 1014.5 |
| 20260501220948 | 45 | 311 | 4.3 | 11.3 | 0.00 | 0.00 | 0.00 | 64 | 1014.5 |
| 20260501220831 | 45 | 24 | 5.2 | 11.3 | 0.00 | 0.00 | 0.00 | 64 | 1014.5 |
| 20260501220708 | 45 | 341 | 5.2 | 11.3 | 0.00 | 0.00 | 0.00 | 64 | 1014.5 |
| 20260501220545 | 45 | 330 | 3.5 | 12.2 | 0.00 | 0.00 | 0.00 | 64 | 1014.5 |
| 20260501220422 | 45 | 5 | 5.2 | 12.2 | 0.00 | 0.00 | 0.00 | 63 | 1014.5 |
| 20260501220303 | 45 | 325 | 6.1 | 12.2 | 0.00 | 0.00 | 0.00 | 63 | 1014.5 |
| 20260501220144 | 45 | 19 | 4.3 | 12.2 | 0.00 | 0.00 | 0.00 | 63 | 1014.5 |
| 20260501220000 | 45 | 335 | 5.2 | 12.2 | 0.00 | 0.00 | 0.00 | 63 | 1014.5 |
| 20260501215838 | 45 | 309 | 7.0 | 12.2 | 0.00 | 0.00 | 0.00 | 62 | 1014.5 |
| 20260501215702 | 45 | 55 | 5.2 | 10.4 | 0.00 | 0.00 | 0.00 | 62 | 1014.5 |
| 20260501215540 | 45 | 338 | 6.1 | 10.4 | 0.00 | 0.00 | 0.00 | 61 | 1014.4 |
| 20260501215419 | 45 | 296 | 5.2 | 12.2 | 0.00 | 0.00 | 0.00 | 62 | 1014.4 |
| 20260501215239 | 45 | 289 | 3.5 | 12.2 | 0.00 | 0.00 | 0.00 | 61 | 1014.4 |
| 20260501215101 | 45 | 299 | 5.2 | 12.2 | 0.00 | 0.00 | 0.00 | 61 | 1014.4 |
| 20260501214939 | 45 | 304 | 5.2 | 12.2 | 0.00 | 0.00 | 0.00 | 61 | 1014.4 |
| 20260501214817 | 45 | 309 | 6.1 | 12.2 | 0.00 | 0.00 | 0.00 | 61 | 1014.4 |
| 20260501214654 | 45 | 317 | 7.8 | 12.2 | 0.00 | 0.00 | 0.00 | 61 | 1014.4 |
| 20260501214532 | 45 | 286 | 4.3 | 12.2 | 0.00 | 0.00 | 0.00 | 62 | 1014.4 |
| 20260501214414 | 45 | 288 | 3.5 | 8.7 | 0.00 | 0.00 | 0.00 | 61 | 1014.4 |
| 20260501214253 | 45 | 289 | 3.5 | 9.6 | 0.00 | 0.00 | 0.00 | 61 | 1014.4 |
| 20260501214131 | 45 | 287 | 3.5 | 9.6 | 0.00 | 0.00 | 0.00 | 61 | 1014.4 |
| 20260501214012 | 45 | 284 | 3.5 | 11.3 | 0.00 | 0.00 | 0.00 | 61 | 1014.4 |
| 20260501213854 | 45 | 275 | 3.5 | 13.9 | 0.00 | 0.00 | 0.00 | 60 | 1014.4 |
| 20260501213732 | 45 | 298 | 5.2 | 13.9 | 0.00 | 0.00 | 0.00 | 60 | 1014.4 |
| 20260501213612 | 45 | 305 | 6.1 | 13.9 | 0.00 | 0.00 | 0.00 | 60 | 1014.4 |
| 20260501213450 | 45 | 286 | 7.0 | 13.9 | 0.00 | 0.00 | 0.00 | 60 | 1014.4 |
| 20260501213311 | 45 | 315 | 7.8 | 13.9 | 0.00 | 0.00 | 0.00 | 59 | 1014.4 |
| 20260501213149 | 45 | 317 | 8.7 | 13.9 | 0.00 | 0.00 | 0.00 | 59 | 1014.3 |
| 20260501213008 | 45 | 294 | 6.1 | 11.3 | 0.00 | 0.00 | 0.00 | 59 | 1014.3 |
| 20260501212846 | 46 | 290 | 7.0 | 11.3 | 0.00 | 0.00 | 0.00 | 59 | 1014.4 |
| 20260501212725 | 46 | 311 | 7.0 | 11.3 | 0.00 | 0.00 | 0.00 | 59 | 1014.3 |
| 20260501212607 | 46 | 286 | 6.1 | 11.3 | 0.00 | 0.00 | 0.00 | 58 | 1014.3 |
| 20260501212443 | 46 | 264 | 7.0 | 11.3 | 0.00 | 0.00 | 0.00 | 58 | 1014.3 |
| 20260501212320 | 46 | 304 | 7.0 | 11.3 | 0.00 | 0.00 | 0.00 | 58 | 1014.3 |
| 20260501212159 | 46 | 290 | 6.1 | 11.3 | 0.00 | 0.00 | 0.00 | 58 | 1014.3 |
| 20260501212041 | 46 | 313 | 7.0 | 11.3 | 0.00 | 0.00 | 0.00 | 58 | 1014.2 |
| 20260501211922 | 46 | 259 | 5.2 | 9.6 | 0.00 | 0.00 | 0.00 | 58 | 1014.2 |
| 20260501211802 | 46 | 296 | 4.3 | 9.6 | 0.00 | 0.00 | 0.00 | 58 | 1014.2 |
| 20260501211641 | 46 | 319 | 6.1 | 9.6 | 0.00 | 0.00 | 0.00 | 57 | 1014.1 |
| 20260501211501 | 46 | 291 | 7.0 | 9.6 | 0.00 | 0.00 | 0.00 | 57 | 1014.1 |
| 20260501211339 | 46 | 303 | 6.1 | 9.6 | 0.00 | 0.00 | 0.00 | 57 | 1014.1 |
| 20260501211135 | 46 | 281 | 5.2 | 9.6 | 0.00 | 0.00 | 0.00 | 58 | 1014.0 |
| 20260501211012 | 46 | 290 | 6.1 | 8.7 | 0.00 | 0.00 | 0.00 | 58 | 1014.1 |
| 20260501210849 | 46 | 309 | 5.2 | 10.4 | 0.00 | 0.00 | 0.00 | 58 | 1014.0 |
| 20260501210729 | 46 | 288 | 4.3 | 12.2 | 0.00 | 0.00 | 0.00 | 58 | 1014.1 |
| 20260501210546 | 46 | 329 | 5.2 | 12.2 | 0.00 | 0.00 | 0.00 | 58 | 1014.0 |
| 20260501210423 | 46 | 291 | 6.1 | 12.2 | 0.00 | 0.00 | 0.00 | 58 | 1014.0 |
| 20260501210302 | 46 | 320 | 6.1 | 12.2 | 0.00 | 0.00 | 0.00 | 58 | 1014.0 |
| 20260501210143 | 46 | 303 | 5.2 | 12.2 | 0.00 | 0.00 | 0.00 | 58 | 1014.0 |
| 20260501210023 | 46 | 284 | 7.0 | 12.2 | 0.00 | 0.00 | 0.00 | 58 | 1014.0 |
| 20260501205859 | 46 | 311 | 6.1 | 12.2 | 0.00 | 0.00 | 0.00 | 58 | 1014.0 |
| 20260501205737 | 46 | 267 | 4.3 | 10.4 | 0.00 | 0.00 | 0.00 | 58 | 1014.0 |
| 20260501205602 | 46 | 272 | 5.2 | 10.4 | 0.00 | 0.00 | 0.00 | 58 | 1014.0 |
| 20260501205420 | 46 | 347 | 7.0 | 10.4 | 0.00 | 0.00 | 0.00 | 58 | 1014.0 |
| 20260501205258 | 46 | 309 | 7.0 | 10.4 | 0.00 | 0.00 | 0.00 | 58 | 1014.0 |
| 20260501205136 | 46 | 307 | 4.3 | 12.2 | 0.00 | 0.00 | 0.00 | 57 | 1013.9 |
| 20260501205015 | 46 | 347 | 2.6 | 12.2 | 0.00 | 0.00 | 0.00 | 57 | 1014.0 |
| 20260501204853 | 46 | 289 | 3.5 | 12.2 | 0.00 | 0.00 | 0.00 | 58 | 1014.0 |
| 20260501204709 | 46 | 298 | 3.5 | 12.2 | 0.00 | 0.00 | 0.00 | 58 | 1013.9 |
| 20260501204523 | 46 | 304 | 7.0 | 12.2 | 0.00 | 0.00 | 0.00 | 57 | 1013.9 |
| 20260501204343 | 46 | 307 | 7.8 | 12.2 | 0.00 | 0.00 | 0.00 | 57 | 1013.9 |
| 20260501204225 | 46 | 308 | 7.0 | 9.6 | 0.00 | 0.00 | 0.00 | 57 | 1013.9 |
| 20260501204044 | 46 | 268 | 5.2 | 8.7 | 0.00 | 0.00 | 0.00 | 57 | 1013.9 |
| 20260501203921 | 47 | 309 | 4.3 | 9.6 | 0.00 | 0.00 | 0.00 | 56 | 1013.9 |
| 20260501203736 | 47 | 289 | 6.1 | 10.4 | 0.00 | 0.00 | 0.00 | 56 | 1013.9 |
| 20260501203618 | 47 | 325 | 5.2 | 13.0 | 0.00 | 0.00 | 0.00 | 57 | 1013.9 |
| 20260501203457 | 47 | 293 | 4.3 | 13.0 | 0.00 | 0.00 | 0.00 | 56 | 1013.9 |
| 20260501203313 | 47 | 300 | 5.2 | 13.0 | 0.00 | 0.00 | 0.00 | 55 | 1013.9 |
| 20260501203151 | 47 | 286 | 7.8 | 13.0 | 0.00 | 0.00 | 0.00 | 55 | 1013.9 |
| 20260501203033 | 47 | 288 | 7.8 | 13.0 | 0.00 | 0.00 | 0.00 | 55 | 1013.8 |
| 20260501202912 | 47 | 292 | 7.0 | 13.0 | 0.00 | 0.00 | 0.00 | 55 | 1013.8 |
| 20260501202753 | 47 | 292 | 3.5 | 8.7 | 0.00 | 0.00 | 0.00 | 57 | 1013.8 |
| 20260501202612 | 47 | 311 | 2.6 | 8.7 | 0.00 | 0.00 | 0.00 | 56 | 1013.8 |
| 20260501202431 | 47 | 303 | 3.5 | 8.7 | 0.00 | 0.00 | 0.00 | 56 | 1013.8 |
| 20260501202313 | 47 | 309 | 4.3 | 8.7 | 0.00 | 0.00 | 0.00 | 56 | 1013.8 |
| 20260501202152 | 47 | 288 | 5.2 | 10.4 | 0.00 | 0.00 | 0.00 | 55 | 1013.8 |
| 20260501202009 | 47 | 325 | 5.2 | 10.4 | 0.00 | 0.00 | 0.00 | 56 | 1013.9 |
| 20260501201807 | 47 | 292 | 5.2 | 10.4 | 0.00 | 0.00 | 0.00 | 55 | 1013.9 |
| 20260501201649 | 47 | 332 | 5.2 | 10.4 | 0.00 | 0.00 | 0.00 | 56 | 1013.8 |
| 20260501201530 | 47 | 302 | 6.1 | 10.4 | 0.00 | 0.00 | 0.00 | 56 | 1013.8 |
| 20260501201406 | 47 | 315 | 7.0 | 10.4 | 0.00 | 0.00 | 0.00 | 57 | 1013.8 |
| 20260501201244 | 47 | 308 | 6.1 | 10.4 | 0.00 | 0.00 | 0.00 | 56 | 1013.8 |
| 20260501201127 | 47 | 306 | 4.3 | 9.6 | 0.00 | 0.00 | 0.00 | 57 | 1013.8 |
| 20260501200942 | 47 | 281 | 6.1 | 9.6 | 0.00 | 0.00 | 0.00 | 56 | 1013.8 |
| 20260501200819 | 47 | 228 | 1.7 | 7.8 | 0.00 | 0.00 | 0.00 | 56 | 1013.8 |
| 20260501200656 | 47 | 318 | 2.6 | 7.8 | 0.00 | 0.00 | 0.00 | 56 | 1013.8 |
| 20260501200537 | 47 | 305 | 5.2 | 7.8 | 0.00 | 0.00 | 0.00 | 56 | 1013.8 |
| 20260501200418 | 47 | 307 | 5.2 | 7.8 | 0.00 | 0.00 | 0.00 | 57 | 1013.8 |
| 20260501200235 | 47 | 333 | 5.2 | 7.8 | 0.00 | 0.00 | 0.00 | 57 | 1013.8 |
| 20260501200112 | 47 | 288 | 5.2 | 10.4 | 0.00 | 0.00 | 0.00 | 57 | 1013.7 |
| 20260501195950 | 47 | 263 | 5.2 | 10.4 | 0.00 | 0.00 | 0.00 | 56 | 1013.8 |
| 20260501195829 | 47 | 304 | 5.2 | 10.4 | 0.00 | 0.00 | 0.00 | 56 | 1013.8 |
| 20260501195707 | 47 | 288 | 4.3 | 10.4 | 0.00 | 0.00 | 0.00 | 56 | 1013.8 |
| 20260501195544 | 47 | 282 | 6.1 | 10.4 | 0.00 | 0.00 | 0.00 | 56 | 1013.8 |
| 20260501195423 | 47 | 306 | 7.0 | 10.4 | 0.00 | 0.00 | 0.00 | 56 | 1013.8 |
| 20260501195306 | 47 | 321 | 5.2 | 9.6 | 0.00 | 0.00 | 0.00 | 57 | 1013.8 |